DL9MFL-6 Weather Reports


time (UTC)temp
C
wind
direction
speed
KPH
gust
KPH
rain 1hr
cm
rain 24hr
cm
rain mn
cm
humidity
%
barometer
mb
20260508125635 18 49 4.8 17.7 0.00 0.00 0.00 56 1013.3
20260508125535 18 46 4.8 16.1 0.00 0.00 0.00 55 1013.3
20260508125434 18 12 4.8 14.5 0.00 0.00 0.00 55 1013.3
20260508125334 18 66 4.8 16.1 0.00 0.00 0.00 54 1013.3
20260508125234 18 119 6.4 17.7 0.00 0.00 0.00 55 1013.3
20260508125200 18 12 6.4 19.3 0.00 0.00 0.00 56 1013.3
20260508125132 18 34 4.8 19.3 0.00 0.00 0.00 56 1013.3
20260508125030 18 321 4.8 19.3 0.00 0.00 0.00 56 1013.3
20260508124831 18 76 4.8 19.3 0.00 0.00 0.00 55 1013.4
20260508124702 18 38 4.8 19.3 0.00 0.00 0.00 55 1013.4
20260508124629 18 335 4.8 19.3 0.00 0.00 0.00 55 1013.4
20260508124529 18 69 4.8 19.3 0.00 0.00 0.00 55 1013.4
20260508124429 17 88 4.8 19.3 0.00 0.00 0.00 55 1013.4
20260508124329 17 5 3.2 19.3 0.00 0.00 0.00 56 1013.4
20260508124229 17 78 3.2 19.3 0.00 0.00 0.00 55 1013.4
20260508124201 17 66 3.2 16.1 0.00 0.00 0.00 55 1013.4
20260508124129 18 86 3.2 8.0 0.00 0.00 0.00 55 1013.4
20260508124029 18 86 3.2 8.0 0.00 0.00 0.00 53 1013.5
20260508123929 18 107 3.2 9.7 0.00 0.00 0.00 53 1013.4
20260508123829 18 98 3.2 9.7 0.00 0.00 0.00 53 1013.4
20260508123729 18 88 3.2 11.3 0.00 0.00 0.00 54 1013.4
20260508123701 18 90 3.2 11.3 0.00 0.00 0.00 54 1013.4
20260508123629 18 36 4.8 12.9 0.00 0.00 0.00 56 1013.4
20260508123529 18 72 4.8 14.5 0.00 0.00 0.00 55 1013.4
20260508123429 18 80 4.8 14.5 0.00 0.00 0.00 53 1013.4
20260508123329 18 115 4.8 14.5 0.00 0.00 0.00 53 1013.4
20260508123229 18 171 4.8 14.5 0.00 0.00 0.00 53 1013.4
20260508123201 18 172 4.8 14.5 0.00 0.00 0.00 53 1013.4
20260508123128 18 133 4.8 14.5 0.00 0.00 0.00 54 1013.4
20260508123029 18 99 4.8 14.5 0.00 0.00 0.00 54 1013.4
20260508122929 18 105 4.8 14.5 0.00 0.00 0.00 53 1013.4
20260508122828 18 105 4.8 14.5 0.00 0.00 0.00 55 1013.4
20260508122728 18 91 4.8 14.5 0.00 0.00 0.00 56 1013.3
20260508122701 18 92 4.8 14.5 0.00 0.00 0.00 56 1013.3
20260508122628 18 355 3.2 14.5 0.00 0.00 0.00 57 1013.4
20260508122529 17 328 3.2 14.5 0.00 0.00 0.00 55 1013.4
20260508122429 17 348 3.2 14.5 0.00 0.00 0.00 55 1013.4
20260508122329 17 348 4.8 14.5 0.00 0.00 0.00 57 1013.4
20260508122228 17 348 3.2 14.5 0.00 0.00 0.00 58 1013.5
20260508122200 17 5 3.2 14.5 0.00 0.00 0.00 58 1013.5
20260508122128 17 34 3.2 14.5 0.00 0.00 0.00 56 1013.4
20260508122026 17 32 3.2 14.5 0.00 0.00 0.00 54 1013.5
20260508121927 17 46 3.2 8.0 0.00 0.00 0.00 54 1013.5
20260508121922 17 16 3.2 12.9 0.00 0.00 0.00 54 1013.5
20260508121917 17 310 3.2 8.0 0.00 0.00 0.00 56 1013.5
20260508121913 17 16 3.2 8.0 0.00 0.00 0.00 55 1013.5
20260508121618 17 88 3.2 12.9 0.00 0.00 0.00 55 1013.5
20260508121518 17 100 3.2 12.9 0.00 0.00 0.00 54 1013.5
20260508121417 17 96 3.2 12.9 0.00 0.00 0.00 53 1013.5
20260508121312 17 69 3.2 12.9 0.00 0.00 0.00 54 1013.5
20260508121201 17 105 3.2 12.9 0.00 0.00 0.00 54 1013.5
20260508121113 17 113 3.2 12.9 0.00 0.00 0.00 55 1013.5
20260508121012 17 100 3.2 12.9 0.00 0.00 0.00 56 1013.5
20260508120923 17 57 3.2 12.9 0.00 0.00 0.00 58 1013.5
20260508120919 17 94 3.2 12.9 0.00 0.00 0.00 55 1013.4
20260508120915 17 104 3.2 12.9 0.00 0.00 0.00 56 1013.4
20260508120911 17 109 3.2 12.9 0.00 0.00 0.00 58 1013.5
20260508120606 17 105 3.2 12.9 0.00 0.00 0.00 57 1013.4
20260508120506 17 64 3.2 12.9 0.00 0.00 0.00 56 1013.4
20260508120405 17 94 3.2 12.9 0.00 0.00 0.00 57 1013.5
20260508120304 17 67 3.2 12.9 0.00 0.00 0.00 58 1013.4
20260508120201 17 246 3.2 12.9 0.00 0.00 0.00 57 1013.4
20260508120002 17 247 3.2 16.1 0.00 0.00 0.00 57 1013.5
20260508115902 17 110 3.2 16.1 0.00 0.00 0.00 56 1013.5
20260508115802 17 99 3.2 16.1 0.00 0.00 0.00 58 1013.5
20260508115701 17 110 3.2 16.1 0.00 0.00 0.00 57 1013.4
20260508115602 17 78 3.2 16.1 0.00 0.00 0.00 56 1013.5
20260508115502 17 63 3.2 16.1 0.00 0.00 0.00 58 1013.4
20260508115402 17 111 3.2 16.1 0.00 0.00 0.00 57 1013.5
20260508115306 17 96 3.2 16.1 0.00 0.00 0.00 57 1013.4
20260508115201 17 107 3.2 16.1 0.00 0.00 0.00 58 1013.5
20260508115102 17 78 3.2 12.9 0.00 0.00 0.00 57 1013.4
20260508115002 17 342 3.2 12.9 0.00 0.00 0.00 58 1013.4
20260508114921 17 93 3.2 12.9 0.00 0.00 0.00 59 1013.4
20260508114917 17 89 4.8 12.9 0.00 0.00 0.00 60 1013.4
20260508114913 17 107 3.2 12.9 0.00 0.00 0.00 60 1013.4
20260508114600 17 91 3.2 11.3 0.00 0.00 0.00 58 1013.4
20260508114500 17 73 4.8 12.9 0.00 0.00 0.00 59 1013.4
20260508114400 17 91 3.2 12.9 0.00 0.00 0.00 57 1013.4
20260508114300 17 109 3.2 12.9 0.00 0.00 0.00 59 1013.4
20260508114204 17 107 3.2 12.9 0.00 0.00 0.00 62 1013.4
20260508114159 17 107 3.2 12.9 0.00 0.00 0.00 62 1013.4
20260508114056 17 81 3.2 12.9 0.00 0.00 0.00 61 1013.4
20260508113956 17 54 3.2 12.9 0.00 0.00 0.00 60 1013.4
20260508113856 16 54 3.2 12.9 0.00 0.00 0.00 59 1013.5
20260508113756 16 130 3.2 12.9 0.00 0.00 0.00 61 1013.5
20260508113701 16 78 3.2 12.9 0.00 0.00 0.00 60 1013.5
20260508113654 16 117 3.2 12.9 0.00 0.00 0.00 60 1013.4
20260508113550 16 78 3.2 12.9 0.00 0.00 0.00 60 1013.5
20260508113448 16 119 4.8 12.9 0.00 0.00 0.00 60 1013.4
20260508113348 16 101 4.8 12.9 0.00 0.00 0.00 59 1013.5
20260508113248 16 90 4.8 12.9 0.00 0.00 0.00 61 1013.5
20260508113201 16 104 4.8 12.9 0.00 0.00 0.00 61 1013.5
20260508113148 16 77 4.8 12.9 0.00 0.00 0.00 61 1013.5
20260508113044 16 156 4.8 12.9 0.00 0.00 0.00 60 1013.5
20260508112944 16 146 4.8 12.9 0.00 0.00 0.00 60 1013.5
20260508112844 16 96 4.8 12.9 0.00 0.00 0.00 60 1013.5
20260508112744 16 96 6.4 12.9 0.00 0.00 0.00 59 1013.5
20260508112702 16 111 6.4 12.9 0.00 0.00 0.00 59 1013.5
20260508112642 16 72 4.8 12.9 0.00 0.00 0.00 60 1013.6
20260508112538 16 105 4.8 14.5 0.00 0.00 0.00 60 1013.5
20260508112438 16 79 4.8 14.5 0.00 0.00 0.00 60 1013.5
20260508112338 17 114 4.8 14.5 0.00 0.00 0.00 60 1013.6
20260508112238 17 91 6.4 14.5 0.00 0.00 0.00 60 1013.6
20260508112201 17 124 6.4 19.3 0.00 0.00 0.00 60 1013.6
20260508112135 17 90 6.4 19.3 0.00 0.00 0.00 60 1013.6
20260508112034 16 56 4.8 19.3 0.00 0.00 0.00 59 1013.6
20260508111929 16 65 4.8 19.3 0.00 0.00 0.00 60 1013.6
20260508111829 16 69 4.8 19.3 0.00 0.00 0.00 60 1013.6
20260508111729 16 57 4.8 19.3 0.00 0.00 0.00 62 1013.6
20260508111701 16 96 4.8 19.3 0.00 0.00 0.00 62 1013.6
20260508111630 16 82 4.8 19.3 0.00 0.00 0.00 60 1013.6
20260508111524 16 103 4.8 19.3 0.00 0.00 0.00 60 1013.6
20260508111430 16 141 3.2 11.3 0.00 0.00 0.00 61 1013.6
20260508111424 16 109 4.8 19.3 0.00 0.00 0.00 60 1013.6
20260508111416 16 125 3.2 19.3 0.00 0.00 0.00 61 1013.6
20260508111412 16 82 3.2 19.3 0.00 0.00 0.00 60 1013.6
20260508111123 16 151 3.2 11.3 0.00 0.00 0.00 61 1013.7
20260508111024 16 96 3.2 8.0 0.00 0.00 0.00 59 1013.7
20260508110930 16 73 3.2 11.3 0.00 0.00 0.00 63 1013.7
20260508110922 16 59 3.2 11.3 0.00 0.00 0.00 60 1013.7
20260508110917 16 97 3.2 11.3 0.00 0.00 0.00 62 1013.7
20260508110913 16 80 3.2 11.3 0.00 0.00 0.00 62 1013.7
20260508110617 16 76 3.2 11.3 0.00 0.00 0.00 62 1013.7
20260508110512 16 149 3.2 11.3 0.00 0.00 0.00 61 1013.7
20260508110412 16 103 3.2 11.3 0.00 0.00 0.00 60 1013.8
20260508110312 16 88 3.2 11.3 0.00 0.00 0.00 61 1013.8
20260508110200 16 67 3.2 11.3 0.00 0.00 0.00 62 1013.7
20260508110111 16 86 3.2 11.3 0.00 0.00 0.00 63 1013.7
20260508110007 16 69 3.2 11.3 0.00 0.00 0.00 62 1013.7
20260508105905 16 97 3.2 11.3 0.00 0.00 0.00 61 1013.7
20260508105806 16 49 3.2 11.3 0.00 0.00 0.00 62 1013.7
20260508105706 16 92 3.2 11.3 0.00 0.00 0.00 60 1013.7
20260508105701 16 105 3.2 11.3 0.00 0.00 0.00 60 1013.7
20260508105606 16 90 3.2 11.3 0.00 0.00 0.00 61 1013.8
20260508105506 16 113 3.2 11.3 0.00 0.00 0.00 63 1013.8
20260508105306 16 82 3.2 17.7 0.00 0.00 0.00 64 1013.7
20260508105201 16 90 3.2 17.7 0.00 0.00 0.00 65 1013.8
20260508105102 16 101 3.2 17.7 0.00 0.00 0.00 64 1013.7
20260508105004 16 105 3.2 17.7 0.00 0.00 0.00 63 1013.8
20260508104921 16 105 4.8 17.7 0.00 0.00 0.00 63 1013.8
20260508104917 16 98 3.2 17.7 0.00 0.00 0.00 65 1013.8
20260508104913 16 79 3.2 17.7 0.00 0.00 0.00 64 1013.8
20260508104604 16 81 3.2 17.7 0.00 0.00 0.00 62 1013.8
20260508104501 16 86 3.2 17.7 0.00 0.00 0.00 62 1013.8
20260508104401 16 103 3.2 14.5 0.00 0.00 0.00 63 1013.8
20260508104301 16 84 3.2 14.5 0.00 0.00 0.00 64 1013.8
20260508104201 16 112 4.8 14.5 0.00 0.00 0.00 63 1013.8
20260508104101 16 83 4.8 14.5 0.00 0.00 0.00 63 1013.8
20260508104001 16 77 4.8 14.5 0.00 0.00 0.00 63 1013.9
20260508103901 16 96 4.8 14.5 0.00 0.00 0.00 64 1013.8
20260508103801 16 55 4.8 14.5 0.00 0.00 0.00 63 1013.9
20260508103700 16 115 4.8 14.5 0.00 0.00 0.00 63 1013.9
20260508103600 16 78 4.8 14.5 0.00 0.00 0.00 63 1013.9
20260508103501 16 121 3.2 14.5 0.00 0.00 0.00 64 1013.9
20260508103401 16 104 3.2 14.5 0.00 0.00 0.00 64 1013.9
20260508103300 16 30 3.2 14.5 0.00 0.00 0.00 64 1013.9
20260508103200 16 69 3.2 14.5 0.00 0.00 0.00 64 1013.9
20260508103101 16 110 3.2 14.5 0.00 0.00 0.00 66 1013.9
20260508103001 16 140 3.2 12.9 0.00 0.00 0.00 65 1013.9
20260508102901 16 81 3.2 12.9 0.00 0.00 0.00 65 1013.9
20260508102801 16 91 3.2 12.9 0.00 0.00 0.00 66 1013.9
20260508102700 16 115 4.8 19.3 0.00 0.00 0.00 66 1013.9
20260508102600 16 98 4.8 19.3 0.00 0.00 0.00 64 1013.9
20260508102501 15 94 4.8 19.3 0.00 0.00 0.00 65 1013.9
20260508102401 15 75 4.8 19.3 0.00 0.00 0.00 64 1013.9
20260508102301 15 138 4.8 19.3 0.00 0.00 0.00 67 1013.9
20260508102200 15 109 4.8 19.3 0.00 0.00 0.00 65 1013.9
20260508102100 15 91 6.4 19.3 0.00 0.00 0.00 65 1014.1
20260508102002 15 76 6.4 19.3 0.00 0.00 0.00 64 1014.1
20260508101902 15 132 4.8 19.3 0.00 0.00 0.00 65 1013.9
20260508101801 15 101 4.8 19.3 0.00 0.00 0.00 64 1014.1
20260508101701 15 70 4.8 17.7 0.00 0.00 0.00 65 1014.1
20260508101601 15 144 4.8 14.5 0.00 0.00 0.00 66 1014.1
20260508101501 15 92 4.8 14.5 0.00 0.00 0.00 66 1014.1
20260508101401 15 108 4.8 14.5 0.00 0.00 0.00 68 1014.1
20260508101301 15 119 3.2 14.5 0.00 0.00 0.00 68 1014.2
20260508101202 15 91 3.2 14.5 0.00 0.00 0.00 69 1014.1
20260508101101 15 110 3.2 14.5 0.00 0.00 0.00 68 1014.2
20260508101001 15 86 3.2 14.5 0.00 0.00 0.00 68 1014.2
20260508100901 15 101 3.2 14.5 0.00 0.00 0.00 67 1014.2
20260508100801 15 108 3.2 14.5 0.00 0.00 0.00 67 1014.2
20260508100701 15 93 3.2 14.5 0.00 0.00 0.00 67 1014.2
20260508100601 15 79 1.6 8.0 0.00 0.00 0.00 69 1014.2
20260508100507 15 103 1.6 6.4 0.00 0.00 0.00 69 1014.2
20260508100401 15 134 1.6 6.4 0.00 0.00 0.00 69 1014.2
20260508100300 14 97 1.6 6.4 0.00 0.00 0.00 68 1014.2
20260508100200 14 110 3.2 6.4 0.00 0.00 0.00 70 1014.2
20260508100100 14 114 3.2 14.5 0.00 0.00 0.00 69 1014.2
20260508100007 14 105 3.2 14.5 0.00 0.00 0.00 69 1014.3
20260508095900 14 92 3.2 14.5 0.00 0.00 0.00 68 1014.2
20260508095800 14 98 3.2 14.5 0.00 0.00 0.00 68 1014.3
20260508095701 14 98 4.8 14.5 0.00 0.00 0.00 68 1014.3
20260508095601 14 98 4.8 14.5 0.00 0.00 0.00 68 1014.3
20260508095501 14 109 4.8 14.5 0.00 0.00 0.00 70 1014.3
20260508095401 14 77 4.8 14.5 0.00 0.00 0.00 69 1014.3
20260508095301 14 77 4.8 14.5 0.00 0.00 0.00 69 1014.3
20260508095200 14 105 4.8 14.5 0.00 0.00 0.00 69 1014.3
20260508095101 14 38 4.8 14.5 0.00 0.00 0.00 69 1014.4
20260508095001 14 108 4.8 12.9 0.00 0.00 0.00 68 1014.3
20260508094901 14 77 4.8 12.9 0.00 0.00 0.00 69 1014.3
20260508094801 14 76 4.8 12.9 0.00 0.00 0.00 69 1014.3
20260508094701 14 74 3.2 12.9 0.00 0.00 0.00 70 1014.3
20260508094601 14 76 3.2 12.9 0.00 0.00 0.00 70 1014.3
20260508094501 14 136 3.2 12.9 0.00 0.00 0.00 70 1014.2
20260508094401 14 67 3.2 12.9 0.00 0.00 0.00 70 1014.3
20260508094301 14 42 3.2 11.3 0.00 0.00 0.00 69 1014.3
20260508094201 14 127 3.2 12.9 0.00 0.00 0.00 69 1014.3
20260508094101 14 84 3.2 12.9 0.00 0.00 0.00 69 1014.3
20260508094001 14 53 3.2 12.9 0.00 0.00 0.00 69 1014.3
20260508093902 14 94 3.2 12.9 0.00 0.00 0.00 68 1014.2
20260508093801 14 87 3.2 12.9 0.00 0.00 0.00 70 1014.3
20260508093701 14 107 3.2 12.9 0.00 0.00 0.00 69 1014.3
20260508093601 14 67 3.2 12.9 0.00 0.00 0.00 70 1014.3
20260508093501 14 72 3.2 12.9 0.00 0.00 0.00 71 1014.3
20260508093401 14 100 3.2 12.9 0.00 0.00 0.00 70 1014.3
20260508093300 14 47 3.2 12.9 0.00 0.00 0.00 70 1014.3
20260508093200 14 197 3.2 12.9 0.00 0.00 0.00 71 1014.3
20260508093100 14 85 3.2 12.9 0.00 0.00 0.00 72 1014.3
20260508093000 13 122 3.2 12.9 0.00 0.00 0.00 72 1014.3
20260508092901 13 123 3.2 12.9 0.00 0.00 0.00 72 1014.3
20260508092801 13 124 3.2 12.9 0.00 0.00 0.00 71 1014.3
20260508092701 13 119 3.2 12.9 0.00 0.00 0.00 69 1014.3
20260508092600 13 134 4.8 12.9 0.00 0.00 0.00 70 1014.3
20260508092500 13 127 4.8 14.5 0.00 0.00 0.00 69 1014.3
20260508092401 13 126 4.8 14.5 0.00 0.00 0.00 70 1014.3
20260508092301 13 46 4.8 14.5 0.00 0.00 0.00 70 1014.3
20260508092201 13 109 3.2 14.5 0.00 0.00 0.00 72 1014.3
20260508092101 13 68 3.2 14.5 0.00 0.00 0.00 72 1014.2
20260508092001 13 53 3.2 14.5 0.00 0.00 0.00 73 1014.2
20260508091901 13 61 3.2 14.5 0.00 0.00 0.00 71 1014.2
20260508091801 13 80 3.2 14.5 0.00 0.00 0.00 71 1014.2
20260508091702 13 69 3.2 14.5 0.00 0.00 0.00 74 1014.2
20260508091602 13 72 3.2 14.5 0.00 0.00 0.00 75 1014.2
20260508091501 13 96 4.8 12.9 0.00 0.00 0.00 74 1014.2
20260508091401 13 73 4.8 12.9 0.00 0.00 0.00 74 1014.2
20260508091301 13 75 4.8 12.9 0.00 0.00 0.00 73 1014.2
20260508091201 13 71 4.8 12.9 0.00 0.00 0.00 74 1014.2
20260508091100 13 69 3.2 12.9 0.00 0.00 0.00 74 1014.2
20260508091001 13 63 3.2 12.9 0.00 0.03 0.00 73 1014.2
20260508090859 13 75 3.2 12.9 0.00 0.03 0.00 73 1014.2
20260508090753 13 77 3.2 12.9 0.00 0.03 0.00 73 1014.2
20260508090701 13 88 3.2 12.9 0.00 0.03 0.00 74 1014.2
20260508090654 13 69 3.2 12.9 0.00 0.03 0.00 74 1014.2
20260508090554 13 26 4.8 12.9 0.00 0.03 0.00 74 1014.3
20260508090454 13 68 3.2 12.9 0.00 0.03 0.00 74 1014.3
20260508090354 13 74 3.2 12.9 0.00 0.03 0.00 74 1014.3
20260508090248 13 71 3.2 12.9 0.00 0.03 0.00 73 1014.3
20260508090201 13 73 3.2 12.9 0.00 0.03 0.00 75 1014.3
20260508090147 13 73 3.2 12.9 0.00 0.03 0.00 75 1014.3
20260508090047 13 78 3.2 12.9 0.00 0.03 0.00 74 1014.3
20260508085948 13 73 3.2 12.9 0.00 0.03 0.00 74 1014.3
20260508085847 13 80 3.2 12.9 0.00 0.03 0.00 74 1014.3
20260508085742 12 82 3.2 12.9 0.00 0.03 0.00 75 1014.3
20260508085700 12 77 3.2 12.9 0.00 0.03 0.00 76 1014.3
20260508085642 12 73 3.2 12.9 0.00 0.03 0.00 76 1014.3
20260508085542 12 67 3.2 8.0 0.00 0.03 0.00 78 1014.3
20260508085442 12 74 3.2 8.0 0.00 0.03 0.00 75 1014.3
20260508085341 12 79 3.2 8.0 0.00 0.03 0.00 75 1014.3
20260508085240 12 59 3.2 8.0 0.00 0.03 0.00 75 1014.3
20260508085201 12 62 3.2 8.0 0.00 0.03 0.00 77 1014.3
20260508085140 12 72 1.6 8.0 0.00 0.03 0.00 77 1014.3
20260508085040 12 61 3.2 8.0 0.00 0.03 0.00 78 1014.3
20260508084939 12 61 3.2 8.0 0.00 0.03 0.00 78 1014.3
20260508084916 12 61 3.2 8.0 0.00 0.03 0.00 78 1014.3
20260508084912 12 65 3.2 8.0 0.00 0.03 0.00 78 1014.3
20260508084639 12 65 3.2 8.0 0.00 0.03 0.00 78 1014.3
20260508084537 12 53 3.2 8.0 0.00 0.03 0.00 78 1014.3
20260508084437 12 54 3.2 11.3 0.00 0.03 0.00 78 1014.3
20260508084338 12 52 1.6 11.3 0.00 0.03 0.00 78 1014.3
20260508084238 12 73 3.2 14.5 0.00 0.03 0.00 77 1014.3
20260508084201 12 70 3.2 14.5 0.00 0.03 0.00 77 1014.3
20260508084136 12 71 3.2 14.5 0.00 0.03 0.00 77 1014.3
20260508084036 12 70 3.2 14.5 0.00 0.03 0.00 77 1014.3
20260508083935 12 76 3.2 14.5 0.00 0.03 0.00 77 1014.3
20260508083835 12 58 3.2 14.5 0.00 0.03 0.00 78 1014.3
20260508083735 12 69 3.2 14.5 0.00 0.03 0.00 77 1014.3
20260508083701 12 69 3.2 14.5 0.00 0.03 0.00 77 1014.3
20260508083636 12 69 4.8 14.5 0.00 0.03 0.00 76 1014.2
20260508083530 12 84 3.2 14.5 0.00 0.03 0.00 77 1014.3
20260508083430 12 74 4.8 14.5 0.00 0.03 0.00 76 1014.3
20260508083330 12 73 4.8 14.5 0.00 0.03 0.00 76 1014.3
20260508083230 12 79 4.8 14.5 0.00 0.03 0.00 76 1014.3
20260508083200 12 78 4.8 14.5 0.00 0.03 0.00 76 1014.3
20260508083130 12 69 4.8 14.5 0.00 0.03 0.00 77 1014.3
20260508083030 12 26 4.8 14.5 0.00 0.03 0.00 78 1014.3
20260508082929 12 79 4.8 14.5 0.00 0.03 0.00 78 1014.2
20260508082829 12 77 4.8 14.5 0.00 0.03 0.00 78 1014.2
20260508082729 12 69 4.8 14.5 0.00 0.03 0.00 79 1014.2
20260508082701 12 79 4.8 14.5 0.00 0.03 0.00 78 1014.2
20260508082629 12 78 4.8 14.5 0.00 0.03 0.00 78 1014.2
20260508082530 12 64 4.8 14.5 0.00 0.03 0.00 78 1014.2
20260508082429 12 71 4.8 14.5 0.00 0.03 0.00 78 1014.2
20260508082329 12 53 4.8 14.5 0.00 0.03 0.00 77 1014.2
20260508082229 12 67 4.8 14.5 0.00 0.03 0.00 77 1014.1
20260508082202 12 56 4.8 14.5 0.00 0.03 0.00 77 1014.1
20260508082129 12 80 3.2 14.5 0.00 0.03 0.00 77 1014.1
20260508082029 12 55 3.2 12.9 0.00 0.03 0.00 77 1014.1
20260508081929 12 75 4.8 12.9 0.00 0.03 0.00 76 1014.2
20260508081830 12 77 4.8 12.9 0.00 0.03 0.00 77 1014.2
20260508081729 12 73 4.8 12.9 0.00 0.03 0.00 77 1014.2
20260508081701 12 74 4.8 12.9 0.00 0.03 0.00 77 1014.2
20260508081629 12 73 4.8 12.9 0.00 0.03 0.00 77 1014.2
20260508081529 12 84 4.8 12.9 0.00 0.03 0.00 77 1014.2
20260508081431 12 55 4.8 12.9 0.00 0.03 0.00 77 1014.1
20260508081427 12 66 4.8 16.1 0.00 0.03 0.00 78 1014.2
20260508081417 12 78 4.8 12.9 0.00 0.03 0.00 77 1014.2
20260508081413 12 90 4.8 16.1 0.00 0.03 0.00 77 1014.2
20260508081129 12 82 4.8 16.1 0.00 0.03 0.00 78 1014.2
20260508081029 12 73 4.8 16.1 0.00 0.03 0.00 78 1014.2
20260508080929 12 71 4.8 16.1 0.00 0.03 0.00 78 1014.3
20260508080828 12 84 4.8 16.1 0.00 0.03 0.00 78 1014.3
20260508080728 12 82 4.8 16.1 0.00 0.03 0.00 77 1014.3
20260508080701 12 81 4.8 16.1 0.00 0.03 0.00 78 1014.3
20260508080629 12 76 4.8 16.1 0.00 0.03 0.00 78 1014.3
20260508080529 12 76 4.8 16.1 0.00 0.03 0.00 78 1014.3
20260508080429 12 89 4.8 16.1 0.00 0.03 0.00 78 1014.3
20260508080329 12 83 3.2 16.1 0.00 0.03 0.00 79 1014.3
20260508080229 11 68 3.2 14.5 0.00 0.03 0.00 78 1014.3
20260508080200 11 72 3.2 12.9 0.00 0.03 0.00 78 1014.3
20260508080129 11 82 3.2 12.9 0.00 0.03 0.00 80 1014.3
20260508080028 11 71 3.2 12.9 0.00 0.03 0.00 80 1014.3
20260508075928 11 78 3.2 12.9 0.00 0.03 0.00 81 1014.3
20260508075827 11 67 3.2 12.9 0.00 0.03 0.00 80 1014.3
20260508075725 11 75 3.2 8.0 0.00 0.03 0.00 81 1014.3
20260508075701 11 72 3.2 8.0 0.00 0.03 0.00 81 1014.3
20260508075621 11 74 3.2 8.0 0.00 0.03 0.00 81 1014.3
20260508075520 11 70 3.2 8.0 0.00 0.03 0.00 81 1014.3
20260508075420 11 64 3.2 8.0 0.00 0.03 0.00 81 1014.3
20260508075318 11 57 3.2 11.3 0.00 0.03 0.00 81 1014.3
20260508075201 11 61 3.2 16.1 0.00 0.03 0.00 82 1014.3
20260508075113 11 63 3.2 16.1 0.00 0.03 0.00 82 1014.4
20260508075013 11 66 3.2 16.1 0.00 0.03 0.00 82 1014.3
20260508074914 11 72 3.2 16.1 0.00 0.03 0.00 81 1014.3
20260508074814 11 71 3.2 16.1 0.00 0.03 0.00 81 1014.3
20260508074713 11 70 3.2 16.1 0.00 0.03 0.00 81 1014.3
20260508074701 11 69 3.2 16.1 0.00 0.03 0.00 81 1014.3
20260508074611 11 69 3.2 16.1 0.00 0.03 0.00 82 1014.3
20260508074511 11 59 3.2 16.1 0.00 0.03 0.00 82 1014.3
20260508074411 11 75 3.2 16.1 0.00 0.03 0.00 82 1014.3
20260508074311 11 88 3.2 16.1 0.00 0.03 0.00 81 1014.3
20260508074211 11 69 3.2 9.7 0.00 0.03 0.00 82 1014.3
20260508074201 11 60 3.2 9.7 0.00 0.03 0.00 82 1014.3
20260508074112 11 19 3.2 9.7 0.00 0.03 0.00 82 1014.3
20260508074012 11 65 3.2 9.7 0.00 0.03 0.00 82 1014.3
20260508073924 11 63 3.2 9.7 0.00 0.03 0.00 82 1014.3
20260508073916 11 57 3.2 9.7 0.00 0.03 0.00 82 1014.3
20260508073912 11 57 3.2 9.7 0.00 0.03 0.00 82 1014.3
20260508073608 11 61 3.2 9.7 0.00 0.03 0.00 82 1014.4
20260508073508 11 59 3.2 9.7 0.00 0.03 0.00 82 1014.4
20260508073406 11 67 3.2 9.7 0.00 0.03 0.00 82 1014.4
20260508073306 10 63 3.2 9.7 0.00 0.03 0.00 84 1014.4
20260508073200 10 63 3.2 9.7 0.00 0.03 0.00 84 1014.4
20260508073105 10 60 3.2 9.7 0.00 0.03 0.00 83 1014.4
20260508073005 10 61 3.2 9.7 0.00 0.03 0.00 84 1014.4
20260508072906 10 65 3.2 9.7 0.00 0.03 0.00 83 1014.3
20260508072806 10 65 3.2 8.0 0.00 0.03 0.00 83 1014.3
20260508072700 10 59 3.2 8.0 0.00 0.03 0.00 82 1014.3
20260508072650 10 60 3.2 8.0 0.00 0.03 0.00 82 1014.3
20260508072644 10 64 3.2 8.0 0.00 0.03 0.00 83 1014.4
20260508072640 10 63 3.2 8.0 0.00 0.03 0.00 82 1014.3
20260508072425 10 57 3.2 8.0 0.00 0.03 0.00 82 1014.3
20260508072416 10 64 3.2 8.0 0.00 0.03 0.00 82 1014.3
20260508072412 10 60 3.2 8.0 0.00 0.03 0.00 82 1014.3
20260508072101 10 61 3.2 8.0 0.00 0.03 0.00 84 1014.3
20260508072001 10 61 3.2 8.0 0.00 0.03 0.00 84 1014.3
20260508071901 10 64 3.2 8.0 0.00 0.03 0.00 84 1014.3
20260508071801 10 63 3.2 8.0 0.00 0.03 0.00 84 1014.3
20260508071701 10 62 3.2 8.0 0.00 0.03 0.00 84 1014.2
20260508071601 10 59 3.2 8.0 0.00 0.03 0.00 84 1014.2
20260508071501 10 62 1.6 8.0 0.00 0.03 0.00 85 1014.2
20260508071400 10 57 1.6 8.0 0.00 0.03 0.00 85 1014.2
20260508071300 10 57 1.6 8.0 0.00 0.03 0.00 86 1014.2
20260508071201 10 57 1.6 8.0 0.00 0.03 0.00 86 1014.2
20260508071101 10 60 3.2 8.0 0.00 0.03 0.00 86 1014.2
20260508071001 10 60 1.6 8.0 0.00 0.03 0.00 86 1014.2
20260508070901 10 59 1.6 8.0 0.00 0.03 0.00 86 1014.2
20260508070801 10 61 1.6 8.0 0.00 0.03 0.00 86 1014.2
20260508070701 10 61 3.2 8.0 0.00 0.03 0.00 87 1014.2
20260508070600 9 57 3.2 8.0 0.00 0.03 0.00 87 1014.1
20260508070500 9 60 3.2 8.0 0.00 0.03 0.00 87 1014.1
20260508070400 9 59 3.2 8.0 0.00 0.03 0.00 87 1014.1
20260508070301 9 57 3.2 8.0 0.00 0.03 0.00 87 1014.2
20260508070200 9 60 3.2 8.0 0.00 0.03 0.00 87 1014.2
20260508070100 9 61 1.6 8.0 0.00 0.03 0.00 89 1014.2
20260508070001 9 58 3.2 8.0 0.00 0.03 0.00 89 1014.2
20260508065901 9 58 3.2 8.0 0.00 0.03 0.00 89 1014.2
20260508065800 9 57 3.2 8.0 0.00 0.03 0.00 89 1014.2
20260508065700 9 63 1.6 8.0 0.00 0.03 0.00 89 1014.2
20260508065600 9 58 1.6 6.4 0.00 0.03 0.00 89 1014.2
20260508065500 9 59 1.6 6.4 0.00 0.03 0.00 89 1014.2
20260508065401 9 59 1.6 6.4 0.00 0.03 0.00 90 1014.2
20260508065301 9 61 1.6 4.8 0.00 0.03 0.00 90 1014.2
20260508065201 8 57 1.6 4.8 0.00 0.03 0.00 90 1014.2
20260508065101 8 59 1.6 4.8 0.00 0.03 0.00 90 1014.3
20260508065001 8 60 1.6 6.4 0.00 0.03 0.00 92 1014.2
20260508064901 8 58 1.6 9.7 0.00 0.03 0.00 92 1014.2
20260508064801 8 59 1.6 9.7 0.00 0.03 0.00 92 1014.2
20260508064702 8 59 1.6 9.7 0.00 0.03 0.00 93 1014.2
20260508064601 8 59 3.2 9.7 0.00 0.03 0.00 95 1014.2
20260508064501 8 57 3.2 9.7 0.00 0.03 0.00 95 1014.2
20260508064401 8 58 3.2 9.7 0.00 0.03 0.00 96 1014.2
20260508064301 8 59 3.2 9.7 0.00 0.03 0.00 96 1014.3
20260508064201 8 59 3.2 9.7 0.00 0.03 0.00 96 1014.3
20260508064101 8 62 3.2 9.7 0.00 0.03 0.00 96 1014.2
20260508064001 8 65 3.2 9.7 0.00 0.03 0.00 96 1014.2
20260508063901 8 63 3.2 8.0 0.00 0.03 0.00 96 1014.2
20260508063800 8 63 3.2 8.0 0.00 0.03 0.00 96 1014.2
20260508063700 8 63 3.2 8.0 0.00 0.03 0.00 96 1014.2
20260508063601 8 60 3.2 8.0 0.00 0.03 0.00 96 1014.2
20260508063501 7 61 3.2 8.0 0.00 0.03 0.00 96 1014.2
20260508063401 7 61 3.2 8.0 0.00 0.03 0.00 96 1014.2
20260508063301 7 62 3.2 11.3 0.00 0.03 0.00 96 1014.2
20260508063201 7 62 3.2 11.3 0.00 0.03 0.00 96 1014.2
20260508063100 7 62 3.2 11.3 0.00 0.03 0.00 96 1014.2
20260508063000 7 65 3.2 11.3 0.00 0.03 0.00 96 1014.2
20260508062900 7 63 3.2 11.3 0.00 0.03 0.00 96 1014.2
20260508062800 7 63 3.2 11.3 0.00 0.03 0.00 96 1014.2
20260508062701 7 62 3.2 11.3 0.00 0.03 0.00 96 1014.2
20260508062601 7 63 3.2 11.3 0.00 0.03 0.00 96 1014.2
20260508062502 7 67 3.2 11.3 0.00 0.03 0.00 96 1014.2
20260508062401 7 64 1.6 11.3 0.00 0.03 0.00 96 1014.2
20260508062305 7 67 1.6 8.0 0.00 0.03 0.00 96 1014.1
20260508062201 7 57 1.6 8.0 0.00 0.03 0.00 96 1014.1
20260508062101 7 58 1.6 8.0 0.00 0.03 0.00 96 1014.1
20260508062001 6 59 1.6 8.0 0.00 0.03 0.00 96 1014.1
20260508061901 6 64 0.0 8.0 0.00 0.03 0.00 96 1014.1
20260508061801 6 57 0.0 4.8 0.00 0.03 0.00 96 1014.1
20260508061701 6 59 0.0 4.8 0.00 0.03 0.00 96 1014.1
20260508061601 6 54 0.0 0.0 0.00 0.03 0.00 96 1014.1
20260508061501 6 54 0.0 0.0 0.00 0.03 0.00 96 1014.1
20260508061400 6 54 0.0 0.0 0.00 0.03 0.00 96 1014.1
20260508061301 6 54 0.0 0.0 0.00 0.03 0.00 95 1014.1
20260508061201 6 54 0.0 0.0 0.00 0.03 0.00 96 1014.1
20260508061101 6 54 0.0 1.6 0.00 0.03 0.00 96 1014.1
20260508061001 6 54 0.0 1.6 0.00 0.03 0.00 96 1014.1
20260508060925 6 54 0.0 1.6 0.00 0.03 0.00 96 1014.1
20260508060917 6 54 0.0 1.6 0.00 0.03 0.00 96 1014.1
20260508060913 6 54 0.0 1.6 0.00 0.03 0.00 96 1014.1
20260508060601 6 54 0.0 1.6 0.00 0.03 0.00 96 1014.1
20260508060501 6 54 0.0 1.6 0.00 0.03 0.00 96 1014.1
20260508060424 6 54 0.0 1.6 0.00 0.03 0.00 95 1014.1
20260508060416 6 54 0.0 1.6 0.00 0.03 0.00 95 1014.1
20260508060412 6 54 0.0 1.6 0.00 0.03 0.00 95 1014.1
20260508060152 5 57 0.0 1.6 0.00 0.03 0.00 96 1014.1
20260508060142 6 57 0.0 1.6 0.00 0.03 0.00 95 1014.1
20260508060138 6 57 0.0 1.6 0.00 0.03 0.00 96 1014.1
20260508055923 5 57 0.0 1.6 0.00 0.03 0.00 96 1014.1
20260508055915 5 57 0.0 1.6 0.00 0.03 0.00 96 1014.1
20260508055911 5 57 0.0 1.6 0.00 0.03 0.00 96 1014.1
20260508055601 5 57 0.0 1.6 0.00 0.03 0.00 95 1014.1
20260508055501 5 57 0.0 3.2 0.00 0.03 0.00 95 1014.1
20260508055401 5 57 0.0 3.2 0.00 0.03 0.00 95 1014.1
20260508055305 5 57 0.0 3.2 0.00 0.03 0.00 95 1013.9
20260508055201 5 57 0.0 3.2 0.00 0.03 0.00 95 1014.1
20260508055101 5 57 0.0 3.2 0.00 0.03 0.00 95 1013.9
20260508055001 5 57 0.0 3.2 0.00 0.03 0.00 95 1013.9
20260508054902 5 57 0.0 3.2 0.00 0.03 0.00 95 1013.9
20260508054804 5 57 0.0 3.2 0.00 0.03 0.00 95 1013.9
20260508054701 5 57 0.0 3.2 0.00 0.03 0.00 95 1013.9
20260508054601 5 57 0.0 3.2 0.00 0.03 0.00 95 1013.8
20260508054501 5 57 0.0 3.2 0.00 0.03 0.00 95 1013.8
20260508054401 5 57 0.0 3.2 0.00 0.03 0.00 95 1013.8
20260508054302 5 56 0.0 3.2 0.00 0.03 0.00 95 1013.8
20260508054201 5 56 0.0 3.2 0.00 0.03 0.00 95 1013.8
20260508054101 4 56 0.0 3.2 0.00 0.03 0.00 95 1013.8
20260508054001 4 56 0.0 3.2 0.00 0.03 0.00 95 1013.9
20260508053929 4 56 0.0 3.2 0.00 0.03 0.00 95 1013.9
20260508053925 4 56 0.0 3.2 0.00 0.03 0.00 95 1013.9
20260508053921 4 56 0.0 3.2 0.00 0.03 0.00 95 1013.9
20260508053601 4 57 0.0 3.2 0.00 0.03 0.00 95 1013.8
20260508053501 4 57 0.0 3.2 0.00 0.03 0.00 95 1013.9
20260508053401 4 57 0.0 3.2 0.00 0.03 0.00 95 1013.8
20260508053301 4 56 0.0 3.2 0.00 0.03 0.00 95 1013.9
20260508053201 4 57 0.0 3.2 0.00 0.03 0.00 95 1013.8
20260508053101 4 56 0.0 3.2 0.00 0.03 0.00 95 1013.8
20260508053001 3 55 0.0 1.6 0.00 0.03 0.00 95 1013.8
20260508052900 3 55 0.0 1.6 0.00 0.03 0.00 95 1013.8
20260508052800 3 55 0.0 1.6 0.00 0.03 0.00 95 1013.8
20260508052701 3 55 0.0 1.6 0.00 0.03 0.00 95 1013.8
20260508052602 3 55 0.0 1.6 0.00 0.03 0.00 95 1013.8
20260508052502 3 55 0.0 1.6 0.00 0.03 0.00 95 1013.8
20260508052426 3 55 0.0 3.2 0.00 0.03 0.00 95 1013.8
20260508052422 3 55 0.0 3.2 0.00 0.03 0.00 94 1013.8
20260508052414 3 55 0.0 3.2 0.00 0.03 0.00 94 1013.8
20260508052102 3 55 0.0 3.2 0.00 0.03 0.00 94 1013.8
20260508052001 3 56 0.0 3.2 0.00 0.03 0.00 94 1013.8
20260508051901 3 57 1.6 4.8 0.00 0.03 0.00 94 1013.8
20260508051801 3 57 1.6 4.8 0.00 0.03 0.00 94 1013.8
20260508051702 3 57 1.6 4.8 0.00 0.03 0.00 94 1013.8
20260508051601 3 57 1.6 4.8 0.00 0.03 0.00 94 1013.8
20260508051501 3 57 1.6 4.8 0.00 0.03 0.00 94 1013.8
20260508051400 3 57 1.6 4.8 0.00 0.03 0.00 94 1013.8
20260508051301 3 57 1.6 4.8 0.00 0.03 0.00 94 1013.8
20260508051201 3 57 1.6 4.8 0.00 0.03 0.00 94 1013.8
20260508051101 3 57 1.6 4.8 0.00 0.03 0.00 94 1013.7
20260508051001 3 57 1.6 4.8 0.00 0.03 0.00 94 1013.7
20260508050901 3 57 1.6 3.2 0.00 0.03 0.00 94 1013.7
20260508050800 3 57 1.6 3.2 0.00 0.03 0.00 94 1013.7
20260508050700 3 57 0.0 3.2 0.00 0.03 0.00 94 1013.7
20260508050600 3 57 0.0 3.2 0.00 0.03 0.00 94 1013.7
20260508050500 3 57 0.0 3.2 0.00 0.03 0.00 94 1013.6
20260508050400 3 57 0.0 3.2 0.00 0.03 0.00 94 1013.6
20260508050301 3 57 0.0 3.2 0.00 0.03 0.00 94 1013.6
20260508050200 3 57 0.0 1.6 0.00 0.03 0.00 94 1013.5
20260508050100 3 57 0.0 1.6 0.00 0.03 0.00 94 1013.5
20260508050001 3 57 0.0 1.6 0.00 0.03 0.00 94 1013.5
20260508045901 3 57 0.0 1.6 0.00 0.03 0.00 94 1013.5
20260508045801 3 57 0.0 1.6 0.00 0.03 0.00 94 1013.5
20260508045706 3 57 0.0 1.6 0.00 0.03 0.00 94 1013.4
20260508045654 3 57 0.0 3.2 0.00 0.03 0.00 93 1013.4
20260508045643 3 57 0.0 1.6 0.00 0.03 0.00 94 1013.4
20260508045639 3 57 0.0 1.6 0.00 0.03 0.00 94 1013.4
20260508045418 3 57 0.0 3.2 0.00 0.03 0.00 94 1013.4
20260508045414 3 57 0.0 3.2 0.00 0.03 0.00 94 1013.4
20260508045409 3 57 0.0 3.2 0.00 0.03 0.00 93 1013.4
20260508045049 3 57 0.0 3.2 0.00 0.03 0.00 93 1013.4
20260508044949 3 58 0.0 3.2 0.00 0.03 0.00 93 1013.4
20260508044849 3 58 1.6 3.2 0.00 0.03 0.00 93 1013.5
20260508044749 3 58 1.6 3.2 0.00 0.03 0.00 93 1013.5
20260508044653 3 58 1.6 3.2 0.00 0.03 0.00 93 1013.5
20260508044549 3 58 1.6 3.2 0.00 0.03 0.00 93 1013.5
20260508044447 3 58 1.6 3.2 0.00 0.03 0.00 93 1013.5
20260508044345 3 58 1.6 3.2 0.00 0.03 0.00 93 1013.4
20260508044244 3 58 1.6 3.2 0.00 0.03 0.00 93 1013.4
20260508044147 3 58 1.6 3.2 0.00 0.03 0.00 93 1013.4
20260508044039 3 58 1.6 3.2 0.00 0.03 0.00 93 1013.4
20260508043940 3 58 0.0 3.2 0.00 0.03 0.00 93 1013.3
20260508043839 3 58 0.0 3.2 0.00 0.03 0.00 93 1013.3
20260508043739 3 58 0.0 3.2 0.00 0.03 0.00 93 1013.3
20260508043641 3 58 0.0 3.2 0.00 0.03 0.00 93 1013.3
20260508043620 3 58 0.0 0.0 0.00 0.03 0.00 93 1013.3
20260508043614 3 58 0.0 3.2 0.00 0.03 0.00 93 1013.3
20260508043610 3 58 0.0 0.0 0.00 0.03 0.00 93 1013.3
20260508043353 3 58 0.0 0.0 0.00 0.03 0.00 93 1013.3
20260508043349 3 57 0.0 0.0 0.00 0.03 0.00 93 1013.3
20260508043345 3 58 0.0 0.0 0.00 0.03 0.00 93 1013.3
20260508043035 3 58 0.0 0.0 0.00 0.03 0.00 93 1013.3
20260508042933 3 58 0.0 0.0 0.00 0.03 0.00 93 1013.4
20260508042833 3 57 0.0 0.0 0.00 0.03 0.00 93 1013.4
20260508042732 3 58 0.0 0.0 0.00 0.03 0.00 93 1013.3
20260508042629 3 59 0.0 0.0 0.00 0.03 0.00 93 1013.3
20260508042529 3 59 0.0 0.0 0.00 0.03 0.00 93 1013.3
20260508042429 3 59 0.0 0.0 0.00 0.03 0.00 93 1013.3
20260508042329 3 59 0.0 0.0 0.00 0.03 0.00 93 1013.3
20260508042229 3 59 0.0 0.0 0.00 0.03 0.00 93 1013.3
20260508042129 3 59 0.0 0.0 0.00 0.03 0.00 93 1013.3
20260508042029 3 59 0.0 0.0 0.00 0.03 0.00 93 1013.3
20260508041929 3 59 0.0 0.0 0.00 0.03 0.00 93 1013.3
20260508041829 3 59 0.0 0.0 0.00 0.03 0.00 93 1013.3
20260508041727 3 59 0.0 0.0 0.00 0.03 0.00 93 1013.3
20260508041627 3 59 0.0 0.0 0.00 0.03 0.00 93 1013.3
20260508041525 3 59 0.0 0.0 0.00 0.03 0.00 93 1013.3
20260508041423 3 59 0.0 0.0 0.00 0.03 0.00 93 1013.3
20260508041323 3 59 0.0 0.0 0.00 0.03 0.00 93 1013.3
20260508041221 3 59 0.0 0.0 0.00 0.03 0.00 93 1013.3
20260508041121 3 59 0.0 0.0 0.00 0.03 0.00 93 1013.3
20260508041116 3 59 0.0 0.0 0.00 0.03 0.00 93 1013.3
20260508041107 3 59 0.0 0.0 0.00 0.03 0.00 93 1013.3
20260508041103 3 59 0.0 0.0 0.00 0.03 0.00 93 1013.3
20260508040843 3 59 0.0 0.0 0.00 0.03 0.00 93 1013.3
20260508040840 3 59 0.0 0.0 0.00 0.03 0.00 93 1013.3
20260508040613 3 59 0.0 0.0 0.00 0.03 0.00 93 1013.3
20260508040513 3 59 0.0 0.0 0.00 0.03 0.00 93 1013.3
20260508040411 3 59 0.0 0.0 0.00 0.03 0.00 93 1013.3
20260508040311 3 59 0.0 0.0 0.00 0.03 0.00 93 1013.2
20260508040209 3 59 0.0 0.0 0.00 0.03 0.00 93 1013.3
20260508040109 3 59 0.0 0.0 0.00 0.03 0.00 93 1013.3
20260508040007 3 59 0.0 0.0 0.00 0.03 0.00 93 1013.3
20260508035905 3 59 0.0 0.0 0.00 0.03 0.00 93 1013.3
20260508035805 3 59 0.0 0.0 0.00 0.03 0.00 93 1013.3
20260508035701 3 59 0.0 0.0 0.00 0.03 0.00 93 1013.3
20260508035602 3 59 0.0 0.0 0.00 0.03 0.00 93 1013.3
20260508035501 3 59 0.0 0.0 0.00 0.03 0.00 93 1013.3
20260508035401 3 59 0.0 0.0 0.00 0.03 0.00 93 1013.3
20260508035302 3 59 0.0 0.0 0.00 0.03 0.00 93 1013.3
20260508035200 3 59 0.0 0.0 0.00 0.03 0.00 93 1013.3
20260508035101 3 59 0.0 0.0 0.00 0.03 0.00 93 1013.3
20260508035001 3 59 0.0 0.0 0.00 0.03 0.00 93 1013.3
20260508034901 3 59 0.0 0.0 0.00 0.03 0.00 93 1013.3
20260508034801 3 59 0.0 0.0 0.00 0.03 0.00 93 1013.3
20260508034701 3 59 0.0 0.0 0.00 0.03 0.00 93 1013.3
20260508034600 3 59 0.0 0.0 0.00 0.03 0.00 93 1013.3
20260508034501 3 59 0.0 0.0 0.00 0.03 0.00 93 1013.3
20260508034400 3 59 0.0 0.0 0.00 0.03 0.00 93 1013.3
20260508034300 3 59 0.0 0.0 0.00 0.03 0.00 93 1013.2
20260508034200 3 59 0.0 0.0 0.00 0.03 0.00 93 1013.2
20260508034101 3 59 0.0 0.0 0.00 0.03 0.00 93 1013.2
20260508034001 3 59 0.0 1.6 0.00 0.03 0.00 93 1013.2
20260508033901 3 59 0.0 1.6 0.00 0.03 0.00 93 1013.2
20260508033801 3 59 0.0 1.6 0.00 0.03 0.00 93 1013.2
20260508033701 3 59 0.0 1.6 0.00 0.03 0.00 93 1013.2
20260508033600 3 59 0.0 1.6 0.00 0.03 0.00 93 1013.2
20260508033500 3 59 0.0 1.6 0.00 0.03 0.00 93 1013.2
20260508033401 3 59 0.0 1.6 0.00 0.03 0.00 93 1013.2
20260508033301 3 59 0.0 1.6 0.00 0.03 0.00 93 1013.2
20260508033201 3 59 0.0 1.6 0.00 0.03 0.00 93 1013.2
20260508033101 3 59 0.0 1.6 0.00 0.03 0.00 93 1013.2
20260508033000 3 59 0.0 1.6 0.00 0.03 0.00 93 1013.1
20260508032900 3 59 0.0 1.6 0.00 0.03 0.00 93 1013.1
20260508032801 3 59 0.0 1.6 0.00 0.03 0.00 93 1013.1
20260508032701 3 59 0.0 1.6 0.00 0.03 0.00 93 1013.1
20260508032600 3 59 0.0 1.6 0.00 0.03 0.00 93 1013.1
20260508032501 3 59 0.0 1.6 0.00 0.03 0.00 93 1013.1
20260508032401 3 59 0.0 1.6 0.00 0.03 0.00 93 1013.1
20260508032305 3 59 0.0 1.6 0.00 0.03 0.00 93 1013.1
20260508032201 3 59 0.0 1.6 0.00 0.03 0.00 93 1013.1
20260508032101 3 61 0.0 1.6 0.00 0.03 0.00 93 1013.0
20260508032001 3 61 0.0 1.6 0.00 0.03 0.00 93 1013.1
20260508031901 3 61 0.0 1.6 0.00 0.03 0.00 93 1013.1
20260508031801 3 61 0.0 1.6 0.00 0.03 0.00 93 1013.1
20260508031700 3 61 0.0 1.6 0.00 0.03 0.00 93 1013.1
20260508031601 3 61 0.0 1.6 0.00 0.03 0.00 93 1013.1
20260508031506 3 61 0.0 1.6 0.00 0.03 0.00 93 1013.1
20260508031401 3 61 0.0 1.6 0.00 0.03 0.00 93 1013.1
20260508031201 3 61 0.0 1.6 0.00 0.03 0.00 93 1013.1
20260508031101 3 61 0.0 0.0 0.00 0.03 0.00 93 1013.1
20260508031001 3 61 0.0 0.0 0.00 0.03 0.00 92 1013.0
20260508030902 3 61 0.0 0.0 0.00 0.03 0.00 92 1013.1
20260508030801 3 61 0.0 0.0 0.00 0.03 0.00 92 1013.1
20260508030700 3 61 0.0 0.0 0.00 0.03 0.00 92 1013.1
20260508030600 3 61 0.0 0.0 0.00 0.03 0.00 92 1013.0
20260508030500 3 61 0.0 0.0 0.00 0.03 0.00 92 1013.1
20260508030400 3 61 0.0 0.0 0.00 0.03 0.00 92 1013.1
20260508030300 3 61 0.0 0.0 0.00 0.03 0.00 92 1013.1
20260508030200 3 61 0.0 0.0 0.00 0.03 0.00 92 1013.1
20260508030001 3 61 0.0 0.0 0.00 0.03 0.00 92 1013.0
20260508025900 3 61 0.0 0.0 0.00 0.03 0.00 92 1013.0
20260508025800 3 61 0.0 0.0 0.00 0.03 0.00 92 1013.0
20260508025701 3 61 0.0 0.0 0.00 0.03 0.00 92 1013.0
20260508025601 3 61 0.0 0.0 0.00 0.03 0.00 92 1013.0
20260508025501 3 61 0.0 0.0 0.00 0.03 0.00 92 1013.0
20260508025401 3 61 0.0 1.6 0.00 0.03 0.00 92 1013.0
20260508025301 3 61 0.0 1.6 0.00 0.03 0.00 92 1013.0
20260508025200 3 61 0.0 1.6 0.00 0.03 0.00 92 1013.0
20260508025101 3 61 0.0 1.6 0.00 0.03 0.00 92 1013.0
20260508025001 3 61 0.0 1.6 0.00 0.03 0.00 92 1013.0
20260508024901 3 61 0.0 1.6 0.00 0.03 0.00 92 1013.0
20260508024850 3 61 0.0 1.6 0.00 0.03 0.00 92 1013.0
20260508024845 3 61 0.0 1.6 0.00 0.03 0.00 92 1013.0
20260508024841 3 61 0.0 1.6 0.00 0.03 0.00 92 1013.0
20260508024601 3 61 0.0 1.6 0.00 0.03 0.00 92 1013.0
20260508024501 3 61 0.0 1.6 0.00 0.03 0.00 92 1013.0
20260508024401 3 61 0.0 0.0 0.00 0.03 0.00 92 1013.0
20260508024301 3 61 0.0 0.0 0.00 0.03 0.00 92 1013.0
20260508024200 3 61 0.0 0.0 0.00 0.03 0.00 92 1013.0
20260508024100 3 61 0.0 1.6 0.00 0.03 0.00 92 1013.0
20260508024001 3 61 0.0 1.6 0.00 0.03 0.00 92 1013.0
20260508023900 3 61 0.0 1.6 0.00 0.03 0.00 92 1013.0
20260508023800 3 61 0.0 1.6 0.00 0.03 0.00 92 1013.0
20260508023701 3 61 0.0 1.6 0.00 0.03 0.00 92 1013.0
20260508023601 3 61 0.0 1.6 0.00 0.03 0.00 92 1013.0
20260508023501 3 61 0.0 1.6 0.00 0.03 0.00 92 1013.0
20260508023401 3 61 0.0 1.6 0.00 0.03 0.00 92 1013.0
20260508023301 3 61 0.0 1.6 0.00 0.03 0.00 92 1013.1
20260508023200 3 61 0.0 1.6 0.00 0.03 0.00 92 1013.1
20260508023100 3 61 0.0 1.6 0.00 0.03 0.00 92 1013.0
20260508023000 3 61 0.0 1.6 0.00 0.03 0.00 92 1013.1
20260508022900 3 61 0.0 1.6 0.00 0.03 0.00 92 1013.1
20260508022801 3 61 0.0 1.6 0.00 0.03 0.00 92 1013.1
20260508022701 3 61 0.0 1.6 0.00 0.03 0.00 92 1013.1
20260508022601 3 61 0.0 1.6 0.00 0.03 0.00 92 1013.1
20260508022501 3 61 0.0 1.6 0.00 0.03 0.00 92 1013.0
20260508022406 3 61 0.0 1.6 0.00 0.03 0.00 92 1013.0
20260508022255 3 61 0.0 1.6 0.00 0.03 0.00 92 1013.1
20260508022129 3 61 0.0 1.6 0.00 0.03 0.00 92 1013.0
20260508022055 3 61 0.0 1.6 0.00 0.03 0.00 92 1013.0
20260508021955 3 61 0.0 1.6 0.00 0.03 0.00 92 1013.0
20260508021858 3 61 0.0 1.6 0.00 0.03 0.00 92 1013.1
20260508021751 3 61 0.0 1.6 0.00 0.03 0.00 92 1013.0
20260508021649 3 61 0.0 1.6 0.00 0.03 0.00 92 1013.0
20260508021629 3 61 0.0 1.6 0.00 0.03 0.00 91 1013.0
20260508021549 3 61 0.0 1.6 0.00 0.03 0.00 92 1013.0
20260508021449 3 61 0.0 1.6 0.00 0.03 0.00 91 1013.0
20260508021354 3 61 0.0 1.6 0.00 0.03 0.00 91 1013.0
20260508021245 3 61 0.0 1.6 0.00 0.03 0.00 91 1013.0
20260508021129 3 61 0.0 1.6 0.00 0.03 0.00 91 1013.1
20260508021043 3 61 0.0 1.6 0.00 0.03 0.00 91 1013.1
20260508020943 3 61 0.0 1.6 0.00 0.03 0.00 92 1013.1
20260508020847 3 61 0.0 3.2 0.00 0.03 0.00 92 1013.1
20260508020743 3 61 1.6 3.2 0.00 0.03 0.00 92 1013.1
20260508020628 3 61 1.6 3.2 0.00 0.03 0.00 92 1013.1
20260508020540 3 61 1.6 3.2 0.00 0.03 0.00 92 1013.2
20260508020439 3 61 1.6 3.2 0.00 0.03 0.00 92 1013.2
20260508020340 3 61 1.6 3.2 0.00 0.03 0.00 92 1013.2
20260508020237 3 61 1.6 3.2 0.00 0.03 0.00 92 1013.1
20260508020129 3 61 1.6 3.2 0.00 0.03 0.00 92 1013.1
20260508020035 3 61 1.6 3.2 0.00 0.03 0.00 92 1013.2
20260508015932 3 61 1.6 3.2 0.00 0.03 0.00 92 1013.2
20260508015833 3 61 1.6 3.2 0.00 0.03 0.00 92 1013.2
20260508015729 3 61 1.6 3.2 0.00 0.03 0.00 92 1013.1
20260508015629 3 61 1.6 3.2 0.00 0.03 0.00 92 1013.2
20260508015529 3 61 1.6 3.2 0.00 0.03 0.00 91 1013.2
20260508015429 3 61 1.6 3.2 0.00 0.03 0.00 91 1013.1
20260508015352 3 61 1.6 3.2 0.00 0.03 0.00 91 1013.2
20260508015344 3 61 1.6 3.2 0.00 0.03 0.00 91 1013.1
20260508015340 3 61 1.6 3.2 0.00 0.03 0.00 91 1013.2
20260508015029 3 61 1.6 3.2 0.00 0.03 0.00 91 1013.2
20260508014929 3 61 0.0 3.2 0.00 0.03 0.00 91 1013.2
20260508014829 3 61 0.0 3.2 0.00 0.03 0.00 91 1013.2
20260508014729 3 61 0.0 3.2 0.00 0.03 0.00 91 1013.2
20260508014628 3 61 0.0 3.2 0.00 0.03 0.00 91 1013.2
20260508014528 3 61 0.0 3.2 0.00 0.03 0.00 91 1013.2
20260508014429 3 61 0.0 3.2 0.00 0.03 0.00 91 1013.2
20260508014328 3 61 0.0 3.2 0.00 0.03 0.00 91 1013.2
20260508014229 3 61 0.0 3.2 0.00 0.03 0.00 91 1013.2
20260508014129 3 61 0.0 1.6 0.00 0.03 0.00 91 1013.2
20260508014029 3 61 0.0 1.6 0.00 0.03 0.00 91 1013.2
20260508013929 3 61 0.0 1.6 0.00 0.03 0.00 90 1013.2
20260508013828 3 61 0.0 1.6 0.00 0.03 0.00 90 1013.2
20260508013729 3 61 0.0 1.6 0.00 0.03 0.00 90 1013.2
20260508013629 3 61 0.0 3.2 0.00 0.03 0.00 90 1013.2
20260508013528 3 61 0.0 3.2 0.00 0.03 0.00 90 1013.2
20260508013428 3 61 0.0 3.2 0.00 0.03 0.00 90 1013.2
20260508013351 3 61 0.0 3.2 0.00 0.03 0.00 90 1013.2
20260508013344 3 61 0.0 3.2 0.00 0.03 0.00 89 1013.2
20260508013340 3 61 0.0 3.2 0.00 0.03 0.00 89 1013.2
20260508013029 3 61 1.6 3.2 0.00 0.03 0.00 90 1013.2
20260508012928 3 61 1.6 3.2 0.00 0.03 0.00 89 1013.2
20260508012828 3 61 1.6 4.8 0.00 0.03 0.00 89 1013.2
20260508012729 3 61 1.6 4.8 0.00 0.03 0.00 89 1013.2
20260508012629 3 61 1.6 4.8 0.00 0.03 0.00 89 1013.2
20260508012528 3 61 1.6 4.8 0.00 0.03 0.00 89 1013.2
20260508012429 3 61 1.6 4.8 0.00 0.03 0.00 90 1013.2
20260508012329 3 61 1.6 4.8 0.00 0.03 0.00 90 1013.2
20260508012229 3 61 1.6 4.8 0.00 0.03 0.00 90 1013.2
20260508012129 3 61 1.6 4.8 0.00 0.03 0.00 91 1013.2
20260508012028 4 61 1.6 4.8 0.00 0.03 0.00 91 1013.2
20260508011928 4 61 1.6 4.8 0.00 0.03 0.00 91 1013.2
20260508011829 4 61 1.6 4.8 0.00 0.03 0.00 91 1013.2
20260508011729 4 61 1.6 4.8 0.00 0.03 0.00 91 1013.2
20260508011629 4 61 1.6 4.8 0.00 0.03 0.00 91 1013.2
20260508011529 4 61 1.6 4.8 0.00 0.03 0.00 91 1013.2
20260508011429 4 61 1.6 4.8 0.00 0.03 0.00 91 1013.2
20260508011329 4 61 1.6 4.8 0.00 0.03 0.00 91 1013.2
20260508011229 4 61 1.6 4.8 0.00 0.03 0.00 91 1013.2
20260508011128 4 61 1.6 4.8 0.00 0.03 0.00 91 1013.1
20260508011028 4 61 3.2 4.8 0.00 0.03 0.00 91 1013.1
20260508010929 4 61 3.2 4.8 0.00 0.03 0.00 91 1013.1
20260508010829 4 61 1.6 4.8 0.00 0.03 0.00 91 1013.2
20260508010733 4 61 1.6 4.8 0.00 0.03 0.00 91 1013.1
20260508010629 4 61 1.6 4.8 0.00 0.03 0.00 91 1013.1
20260508010528 4 61 1.6 4.8 0.00 0.03 0.00 91 1013.2
20260508010428 4 61 1.6 4.8 0.00 0.03 0.00 91 1013.2
20260508010328 4 61 1.6 4.8 0.00 0.03 0.00 90 1013.2
20260508010228 4 61 0.0 1.6 0.00 0.03 0.00 90 1013.2
20260508010128 4 61 0.0 1.6 0.00 0.03 0.00 90 1013.2
20260508010028 4 61 0.0 1.6 0.00 0.03 0.00 90 1013.2
20260508005929 4 61 0.0 1.6 0.00 0.03 0.00 90 1013.2
20260508005829 4 61 0.0 1.6 0.00 0.03 0.00 90 1013.2
20260508005729 4 61 0.0 1.6 0.00 0.03 0.00 90 1013.1
20260508005630 4 61 0.0 1.6 0.00 0.03 0.00 90 1013.2
20260508005529 4 61 0.0 1.6 0.00 0.03 0.00 90 1013.2
20260508005428 4 61 0.0 1.6 0.00 0.03 0.00 90 1013.2
20260508005328 4 61 0.0 0.0 0.00 0.03 0.00 90 1013.2
20260508005229 4 61 0.0 0.0 0.00 0.03 0.00 89 1013.3
20260508005129 4 61 0.0 0.0 0.00 0.03 0.00 89 1013.3
20260508005029 4 61 0.0 0.0 0.00 0.03 0.00 89 1013.3
20260508004929 4 61 0.0 0.0 0.00 0.03 0.00 89 1013.3
20260508004829 4 61 0.0 0.0 0.00 0.03 0.00 89 1013.3
20260508004729 4 61 0.0 0.0 0.00 0.03 0.00 89 1013.4
20260508004629 4 61 0.0 1.6 0.00 0.03 0.00 89 1013.3
20260508004529 4 61 0.0 1.6 0.00 0.03 0.00 89 1013.4
20260508004429 4 61 0.0 1.6 0.00 0.03 0.00 89 1013.4
20260508004328 4 61 0.0 1.6 0.00 0.03 0.00 89 1013.4
20260508004228 4 61 0.0 1.6 0.00 0.03 0.00 89 1013.4
20260508004129 4 61 0.0 3.2 0.00 0.03 0.00 89 1013.4
20260508004029 4 61 1.6 3.2 0.00 0.03 0.00 89 1013.4
20260508003929 4 61 1.6 3.2 0.00 0.03 0.00 89 1013.4
20260508003829 4 61 1.6 3.2 0.00 0.03 0.00 89 1013.4
20260508003728 4 61 1.6 3.2 0.00 0.03 0.00 89 1013.4
20260508003628 4 61 1.6 3.2 0.00 0.03 0.00 89 1013.4
20260508003528 4 61 1.6 3.2 0.00 0.03 0.00 89 1013.5
20260508003428 4 61 1.6 3.2 0.00 0.03 0.00 89 1013.4
20260508003351 5 61 1.6 3.2 0.00 0.03 0.00 89 1013.4
20260508003347 5 61 1.6 3.2 0.00 0.03 0.00 90 1013.4
20260508003339 5 61 1.6 3.2 0.00 0.03 0.00 90 1013.4
20260508003029 5 61 1.6 3.2 0.00 0.03 0.00 90 1013.4
20260508002930 5 61 1.6 3.2 0.00 0.03 0.00 90 1013.4
20260508002828 5 61 1.6 3.2 0.00 0.03 0.00 90 1013.4
20260508002728 5 61 1.6 3.2 0.00 0.03 0.00 90 1013.4
20260508002629 5 61 1.6 3.2 0.00 0.03 0.00 90 1013.4
20260508002527 5 61 0.0 3.2 0.00 0.03 0.00 90 1013.4
20260508002427 5 61 0.0 3.2 0.00 0.03 0.00 90 1013.4
20260508002324 5 61 0.0 3.2 0.00 0.03 0.00 90 1013.4
20260508002224 5 61 0.0 3.2 0.00 0.03 0.00 90 1013.4
20260508002129 5 61 0.0 3.2 0.00 0.03 0.00 90 1013.4
20260508002125 5 61 0.0 3.2 0.00 0.03 0.00 89 1013.4
20260508002021 5 61 0.0 3.2 0.00 0.03 0.00 89 1013.4
20260508001920 5 61 0.0 1.6 0.00 0.03 0.00 89 1013.4
20260508001820 5 61 0.0 1.6 0.00 0.03 0.00 89 1013.4
20260508001720 5 61 0.0 1.6 0.00 0.03 0.00 89 1013.5
20260508001620 5 61 0.0 1.6 0.00 0.03 0.00 89 1013.5
20260508001521 5 61 0.0 1.6 0.00 0.03 0.00 89 1013.5
20260508001419 5 61 0.0 1.6 0.00 0.03 0.00 88 1013.5
20260508001319 5 61 0.0 1.6 0.00 0.03 0.00 88 1013.5
20260508001219 5 61 0.0 1.6 0.00 0.03 0.00 88 1013.5
20260508001118 5 61 0.0 1.6 0.00 0.03 0.00 87 1013.5
20260508000919 5 61 0.0 1.6 0.00 0.03 0.00 86 1013.5
20260508000819 5 61 0.0 1.6 0.00 0.03 0.00 87 1013.5
20260508000717 5 61 0.0 3.2 0.00 0.03 0.00 86 1013.5
20260508000617 5 61 0.0 3.2 0.00 0.03 0.00 87 1013.6
20260508000515 5 61 0.0 3.2 0.00 0.03 0.00 87 1013.6
20260508000414 5 61 0.0 3.2 0.00 0.03 0.00 86 1013.6
20260508000314 5 61 0.0 3.2 0.00 0.03 0.00 86 1013.6
20260508000214 5 61 0.0 3.2 0.00 0.03 0.00 86 1013.6
20260508000115 5 61 0.0 3.2 0.00 0.03 0.00 86 1013.6
20260508000015 5 61 0.0 3.2 0.00 0.03 0.00 87 1013.7
20260507235915 5 61 0.0 3.2 0.00 0.03 0.00 87 1013.7
20260507235815 5 61 0.0 3.2 0.00 0.03 0.00 87 1013.7
20260507235715 5 61 0.0 1.6 0.00 0.03 0.00 87 1013.7
20260507235610 5 61 0.0 0.0 0.00 0.03 0.00 87 1013.7
20260507235510 5 61 0.0 0.0 0.00 0.03 0.00 88 1013.7
20260507235411 5 61 0.0 0.0 0.00 0.03 0.00 88 1013.8
20260507235311 5 61 0.0 0.0 0.00 0.03 0.00 88 1013.7
20260507235211 5 61 0.0 0.0 0.00 0.03 0.00 88 1013.8
20260507235111 5 61 0.0 0.0 0.00 0.03 0.00 89 1013.8
20260507235010 6 61 0.0 0.0 0.00 0.03 0.00 88 1013.8
20260507234910 6 61 0.0 0.0 0.00 0.03 0.00 88 1013.8
20260507234810 6 61 0.0 0.0 0.00 0.03 0.00 88 1013.8
20260507234710 6 61 0.0 0.0 0.00 0.03 0.00 88 1013.8
20260507234615 6 61 0.0 0.0 0.00 0.03 0.00 88 1013.8
20260507234511 6 61 0.0 0.0 0.00 0.03 0.00 88 1013.8
20260507234411 6 61 0.0 0.0 0.00 0.03 0.00 88 1013.8
20260507234311 6 61 0.0 0.0 0.00 0.03 0.00 88 1013.8
20260507234211 6 61 0.0 0.0 0.00 0.03 0.00 88 1013.8
20260507234110 6 61 0.0 0.0 0.00 0.03 0.00 88 1013.8
20260507234010 6 61 0.0 0.0 0.00 0.03 0.00 89 1013.8
20260507233910 6 61 0.0 0.0 0.00 0.03 0.00 88 1013.8
20260507233810 6 61 0.0 0.0 0.00 0.03 0.00 89 1013.8
20260507233706 6 61 0.0 0.0 0.00 0.03 0.00 88 1013.8
20260507233628 6 61 0.0 0.0 0.00 0.03 0.00 89 1013.8
20260507233608 6 61 0.0 0.0 0.00 0.03 0.00 88 1013.8
20260507233507 6 61 0.0 0.0 0.00 0.03 0.00 88 1013.9
20260507233407 6 61 0.0 0.0 0.00 0.03 0.00 88 1013.9
20260507233307 6 61 0.0 0.0 0.00 0.03 0.00 88 1013.9
20260507233206 6 61 0.0 0.0 0.00 0.03 0.00 88 1013.9
20260507233106 6 61 0.0 0.0 0.00 0.03 0.00 88 1013.9
20260507233006 6 61 0.0 0.0 0.00 0.03 0.00 88 1013.9
20260507232906 6 61 0.0 0.0 0.00 0.03 0.00 88 1013.9
20260507232807 6 61 0.0 0.0 0.00 0.03 0.00 88 1013.9
20260507232707 6 61 0.0 0.0 0.00 0.03 0.00 88 1014.1
20260507232612 6 61 0.0 0.0 0.00 0.03 0.00 88 1013.9
20260507232507 6 61 0.0 0.0 0.00 0.03 0.00 88 1013.9
20260507232407 6 61 0.0 0.0 0.00 0.03 0.00 88 1014.1
20260507232307 6 61 0.0 0.0 0.00 0.03 0.00 88 1013.9
20260507232206 6 61 0.0 0.0 0.00 0.03 0.00 88 1014.1
20260507232129 6 61 0.0 0.0 0.00 0.03 0.00 88 1014.1
20260507232107 6 61 0.0 1.6 0.00 0.03 0.00 88 1014.1
20260507232006 6 61 0.0 1.6 0.00 0.03 0.00 88 1014.1
20260507231907 6 63 0.0 1.6 0.00 0.03 0.00 88 1013.9
20260507231803 6 63 0.0 1.6 0.00 0.03 0.00 87 1014.1
20260507231703 6 63 0.0 1.6 0.00 0.03 0.00 87 1014.1
20260507231602 6 63 0.0 1.6 0.00 0.03 0.00 87 1014.1
20260507231502 6 63 0.0 1.6 0.00 0.03 0.00 87 1014.1
20260507231402 6 63 0.0 1.6 0.00 0.03 0.00 87 1014.1
20260507231302 6 63 0.0 1.6 0.00 0.03 0.00 87 1014.1
20260507231202 6 63 0.0 1.6 0.00 0.03 0.00 87 1014.1
20260507231102 6 63 0.0 1.6 0.00 0.03 0.00 87 1014.2
20260507231003 6 63 0.0 1.6 0.00 0.03 0.00 87 1014.1
20260507230903 6 63 0.0 1.6 0.00 0.03 0.00 87 1014.1
20260507230803 6 63 0.0 1.6 0.00 0.03 0.00 87 1014.1
20260507230702 6 63 0.0 1.6 0.00 0.03 0.00 87 1014.2
20260507230602 6 63 0.0 1.6 0.00 0.03 0.00 87 1014.1
20260507230502 6 63 0.0 1.6 0.00 0.03 0.00 86 1014.1
20260507230402 6 63 0.0 1.6 0.00 0.03 0.00 86 1014.1
20260507230302 6 63 0.0 1.6 0.00 0.03 0.00 86 1014.1
20260507230202 6 63 0.0 3.2 0.00 0.03 0.00 86 1014.1
20260507230101 6 63 0.0 3.2 0.00 0.03 0.00 85 1014.1
20260507230001 6 63 0.0 3.2 0.00 0.03 0.00 86 1013.9
20260507225901 6 63 1.6 3.2 0.00 0.03 0.00 86 1013.9
20260507225848 6 63 1.6 3.2 0.00 0.03 0.00 86 1014.1
20260507225844 6 63 1.6 3.2 0.00 0.03 0.00 86 1014.1
20260507225840 6 63 1.6 3.2 0.00 0.03 0.00 86 1014.1
20260507225601 6 63 1.6 3.2 0.00 0.03 0.00 86 1014.1
20260507225501 6 63 1.6 3.2 0.00 0.03 0.00 86 1014.1
20260507225401 7 63 1.6 3.2 0.00 0.03 0.00 86 1014.1
20260507225301 7 63 1.6 3.2 0.00 0.03 0.00 86 1014.1
20260507225201 7 63 1.6 3.2 0.00 0.03 0.00 86 1014.2
20260507225100 7 63 1.6 3.2 0.00 0.03 0.00 86 1014.1
20260507225001 7 63 1.6 3.2 0.00 0.03 0.00 86 1014.1
20260507224901 7 63 1.6 3.2 0.00 0.03 0.00 86 1014.1
20260507224853 7 65 0.0 3.2 0.00 0.03 0.00 86 1014.1
20260507224844 7 63 1.6 3.2 0.00 0.03 0.00 86 1014.1
20260507224840 7 63 0.0 3.2 0.00 0.03 0.00 86 1014.1
20260507224601 7 65 0.0 3.2 0.00 0.03 0.00 86 1014.1
20260507224501 7 65 0.0 3.2 0.00 0.03 0.00 86 1014.1
20260507224401 7 65 0.0 3.2 0.00 0.03 0.00 86 1013.9
20260507224347 7 65 0.0 3.2 0.00 0.03 0.00 86 1014.1
20260507224342 7 65 0.0 3.2 0.00 0.03 0.00 86 1013.9
20260507224339 7 65 0.0 3.2 0.00 0.03 0.00 86 1013.9
20260507224101 7 65 0.0 3.2 0.00 0.03 0.00 86 1014.1
20260507224001 7 66 0.0 3.2 0.00 0.03 0.00 86 1013.9
20260507223901 7 66 0.0 3.2 0.00 0.03 0.00 86 1013.9
20260507223801 7 66 0.0 3.2 0.00 0.03 0.00 86 1013.9
20260507223700 7 66 0.0 3.2 0.00 0.03 0.00 86 1013.9
20260507223600 7 66 0.0 3.2 0.00 0.03 0.00 86 1013.9
20260507223500 7 66 0.0 3.2 0.00 0.03 0.00 86 1013.9
20260507223400 7 66 0.0 3.2 0.00 0.03 0.00 86 1013.9
20260507223300 7 66 0.0 3.2 0.00 0.03 0.00 86 1013.9
20260507223200 7 66 0.0 3.2 0.00 0.03 0.00 85 1013.9
20260507223101 7 66 0.0 3.2 0.00 0.03 0.00 85 1013.8
20260507223001 7 68 0.0 3.2 0.00 0.03 0.00 85 1013.8
20260507222901 7 68 0.0 3.2 0.00 0.03 0.00 85 1013.8
20260507222852 7 71 0.0 3.2 0.00 0.03 0.00 85 1013.9
20260507222845 7 70 0.0 3.2 0.00 0.03 0.00 85 1013.8
20260507222841 7 70 0.0 3.2 0.00 0.03 0.00 85 1013.9
20260507222600 7 71 0.0 3.2 0.00 0.03 0.00 85 1013.9
20260507222501 7 71 0.0 3.2 0.00 0.03 0.00 85 1013.9
20260507222401 7 71 0.0 3.2 0.00 0.03 0.00 84 1013.9
20260507222301 7 71 0.0 4.8 0.00 0.03 0.00 84 1013.9
20260507222201 8 71 1.6 4.8 0.00 0.03 0.00 84 1013.9
20260507222101 8 71 1.6 4.8 0.00 0.03 0.00 84 1013.9
20260507222001 8 71 1.6 4.8 0.00 0.03 0.00 84 1014.1
20260507221901 8 71 1.6 4.8 0.00 0.03 0.00 84 1014.1
20260507221852 8 71 3.2 4.8 0.00 0.03 0.00 84 1013.9
20260507221845 8 71 1.6 4.8 0.00 0.03 0.00 84 1013.9
20260507221841 8 71 3.2 4.8 0.00 0.03 0.00 84 1013.9
20260507221601 8 71 3.2 4.8 0.00 0.03 0.00 84 1013.9
20260507221501 8 71 3.2 4.8 0.00 0.03 0.00 84 1014.1
20260507221401 8 71 3.2 4.8 0.00 0.03 0.00 84 1013.9
20260507221350 8 71 1.6 4.8 0.00 0.03 0.00 84 1014.1
20260507221344 8 71 3.2 4.8 0.00 0.03 0.00 84 1013.9
20260507221340 8 71 1.6 4.8 0.00 0.03 0.00 84 1014.1
20260507221100 8 71 1.6 4.8 0.00 0.03 0.00 84 1014.1
20260507221000 8 67 1.6 4.8 0.00 0.03 0.00 84 1014.1
20260507220900 8 65 1.6 4.8 0.00 0.03 0.00 83 1014.1
20260507220800 8 59 1.6 4.8 0.00 0.03 0.00 83 1014.1
20260507220700 8 58 0.0 4.8 0.00 0.03 0.00 83 1014.1
20260507220628 8 57 0.0 3.2 0.00 0.03 0.00 83 1014.1
20260507220601 8 57 0.0 3.2 0.00 0.03 0.00 83 1014.1
20260507220500 8 57 0.0 1.6 0.00 0.03 0.00 83 1014.1
20260507220400 8 57 0.0 1.6 0.00 0.03 0.00 83 1014.1
20260507220300 8 57 0.0 1.6 0.00 0.03 0.00 83 1014.1
20260507220201 8 57 1.6 3.2 0.00 0.03 0.00 83 1014.1
20260507220124 8 57 1.6 3.2 0.00 0.03 0.03 83 1013.9
20260507220117 8 57 1.6 3.2 0.00 0.03 0.00 83 1014.1
20260507220109 8 57 1.6 3.2 0.00 0.03 0.00 83 1014.1
20260507220105 8 57 1.6 3.2 0.00 0.03 0.03 83 1014.1
20260507215845 8 57 1.6 3.2 0.00 0.03 0.03 83 1014.1
20260507215841 8 57 1.6 3.2 0.00 0.03 0.03 83 1013.9
20260507215601 8 57 1.6 3.2 0.00 0.03 0.03 83 1013.9
20260507215501 8 57 1.6 3.2 0.00 0.03 0.03 83 1013.9
20260507215358 8 57 1.6 3.2 0.00 0.03 0.03 83 1013.9
20260507215255 8 57 1.6 3.2 0.00 0.03 0.03 83 1013.9
20260507215129 8 57 0.0 3.2 0.00 0.03 0.03 83 1013.9
20260507215055 8 57 0.0 3.2 0.00 0.03 0.03 83 1013.9
20260507214954 8 57 0.0 3.2 0.00 0.03 0.03 83 1013.9
20260507214853 8 57 0.0 3.2 0.00 0.03 0.03 83 1013.9
20260507214843 8 57 0.0 1.6 0.00 0.03 0.03 83 1013.9
20260507214839 9 57 0.0 1.6 0.00 0.03 0.03 83 1013.9
20260507214551 8 57 0.0 1.6 0.00 0.03 0.03 83 1013.9
20260507214448 9 57 0.0 1.6 0.00 0.03 0.03 83 1013.9
20260507214348 9 57 0.0 1.6 0.00 0.03 0.03 83 1013.9
20260507214344 9 57 0.0 1.6 0.00 0.03 0.03 83 1013.9
20260507214340 9 57 0.0 1.6 0.00 0.03 0.03 83 1013.9
20260507214045 9 57 0.0 1.6 0.00 0.03 0.03 83 1013.8
20260507213943 9 57 0.0 1.6 0.00 0.03 0.03 83 1013.8
20260507213837 9 57 0.0 1.6 0.00 0.03 0.03 83 1013.8
20260507213738 9 57 0.0 1.6 0.00 0.03 0.03 83 1013.8
20260507213628 9 57 0.0 1.6 0.00 0.03 0.03 83 1013.8
20260507213535 9 57 0.0 1.6 0.00 0.03 0.03 83 1013.8
20260507213434 9 57 0.0 1.6 0.00 0.03 0.03 83 1013.8
20260507213329 9 57 0.0 0.0 0.00 0.03 0.03 83 1013.8
20260507213229 9 57 0.0 1.6 0.00 0.03 0.03 83 1013.8
20260507213129 9 57 0.0 3.2 0.00 0.03 0.03 84 1013.8
20260507213030 9 57 0.0 3.2 0.00 0.03 0.03 84 1013.8
20260507212929 9 57 0.0 4.8 0.00 0.03 0.03 84 1013.8
20260507212849 9 57 0.0 4.8 0.00 0.03 0.03 84 1013.8
20260507212845 9 57 0.0 4.8 0.00 0.03 0.03 84 1013.8
20260507212841 9 57 0.0 4.8 0.00 0.03 0.03 84 1013.9
20260507212529 9 57 0.0 4.8 0.00 0.03 0.03 84 1013.9
20260507212429 9 57 0.0 4.8 0.00 0.03 0.03 84 1013.8
20260507212329 9 57 0.0 4.8 0.00 0.03 0.03 84 1013.8
20260507212229 9 57 0.0 4.8 0.00 0.03 0.03 84 1013.8
20260507212128 9 57 0.0 4.8 0.00 0.03 0.03 84 1013.8
20260507212029 9 57 0.0 4.8 0.00 0.03 0.03 84 1013.8
20260507211929 9 40 0.0 3.2 0.00 0.03 0.03 84 1013.8
20260507211829 9 40 0.0 3.2 0.00 0.03 0.03 84 1013.8
20260507211729 9 40 0.0 3.2 0.00 0.03 0.03 84 1013.8
20260507211629 9 40 0.0 3.2 0.00 0.03 0.03 84 1013.8
20260507211529 9 40 0.0 3.2 0.00 0.03 0.03 84 1013.9
20260507211429 9 39 0.0 3.2 0.00 0.03 0.03 84 1013.9
20260507211348 9 35 0.0 3.2 0.00 0.03 0.03 84 1013.9
20260507211344 9 34 0.0 3.2 0.00 0.03 0.03 84 1013.9
20260507211340 9 34 0.0 3.2 0.00 0.03 0.03 84 1014.1
20260507210928 9 34 0.0 3.2 0.00 0.03 0.03 84 1014.1
20260507210828 9 34 0.0 3.2 0.00 0.03 0.03 84 1014.1
20260507210728 9 34 0.0 3.2 0.00 0.03 0.03 84 1014.1
20260507210628 9 34 0.0 3.2 0.00 0.03 0.03 84 1014.1
20260507210529 9 34 0.0 1.6 0.00 0.03 0.03 84 1014.2
20260507210429 9 34 0.0 1.6 0.00 0.03 0.03 84 1014.2
20260507210330 9 34 0.0 1.6 0.00 0.03 0.03 84 1014.2
20260507210230 9 34 0.0 1.6 0.00 0.03 0.03 84 1014.2
20260507210129 9 34 0.0 1.6 0.00 0.03 0.03 84 1014.2
20260507210029 9 34 0.0 1.6 0.00 0.03 0.03 84 1014.2
20260507205929 9 34 0.0 1.6 0.00 0.03 0.03 84 1014.2
20260507205829 9 34 0.0 1.6 0.00 0.03 0.03 84 1014.3
20260507205729 9 34 0.0 1.6 0.00 0.03 0.03 84 1014.3
20260507205629 9 34 0.0 1.6 0.00 0.03 0.03 84 1014.3
20260507205529 9 34 0.0 1.6 0.00 0.03 0.03 84 1014.3
20260507205429 9 34 0.0 1.6 0.00 0.03 0.03 84 1014.3
20260507205348 9 34 0.0 1.6 0.00 0.03 0.03 84 1014.3
20260507205344 9 34 0.0 1.6 0.00 0.03 0.03 84 1014.3
20260507205340 9 34 0.0 1.6 0.00 0.03 0.03 84 1014.3
20260507205029 9 34 0.0 1.6 0.00 0.03 0.03 84 1014.3
20260507204929 9 34 0.0 1.6 0.00 0.03 0.03 84 1014.3
20260507204829 9 34 0.0 1.6 0.00 0.03 0.03 84 1014.3
20260507204729 9 34 0.0 1.6 0.00 0.03 0.03 84 1014.3
20260507204629 9 34 0.0 1.6 0.00 0.03 0.03 84 1014.2
20260507204529 9 34 0.0 0.0 0.00 0.03 0.03 84 1014.2
20260507204429 9 34 0.0 0.0 0.00 0.03 0.03 84 1014.3
20260507204329 9 34 0.0 0.0 0.00 0.03 0.03 84 1014.3
20260507204228 9 34 0.0 0.0 0.00 0.03 0.03 84 1014.2
20260507204128 9 34 0.0 0.0 0.00 0.03 0.03 84 1014.2
20260507204028 9 34 0.0 0.0 0.00 0.03 0.03 83 1014.2
20260507203929 9 34 0.0 0.0 0.00 0.03 0.03 83 1014.3
20260507203829 9 34 0.0 0.0 0.00 0.03 0.03 83 1014.2
20260507203728 9 34 0.0 0.0 0.00 0.03 0.03 83 1014.3
20260507203628 9 34 0.0 0.0 0.00 0.03 0.03 83 1014.3
20260507203528 9 34 0.0 0.0 0.00 0.03 0.03 83 1014.2
20260507203429 9 34 0.0 0.0 0.00 0.03 0.03 83 1014.2
20260507203329 9 34 0.0 0.0 0.00 0.03 0.03 83 1014.2
20260507203229 9 34 0.0 0.0 0.00 0.03 0.03 82 1014.2
20260507203130 9 34 0.0 0.0 0.00 0.03 0.03 82 1014.2
20260507203029 9 34 0.0 0.0 0.00 0.03 0.03 82 1014.2
20260507202929 9 34 0.0 0.0 0.00 0.03 0.03 82 1014.2
20260507202829 9 34 0.0 0.0 0.00 0.03 0.03 83 1014.2
20260507202729 9 34 0.0 0.0 0.00 0.03 0.03 82 1014.2
20260507202629 9 34 0.0 0.0 0.00 0.03 0.03 82 1014.2
20260507202529 9 34 0.0 0.0 0.00 0.03 0.03 82 1014.2
20260507202429 9 34 0.0 0.0 0.00 0.03 0.03 82 1014.1
20260507202329 9 34 0.0 0.0 0.00 0.03 0.03 82 1014.1
20260507202229 9 34 0.0 0.0 0.00 0.03 0.03 82 1014.1
20260507202129 9 34 0.0 0.0 0.00 0.03 0.03 82 1014.2
20260507202029 9 34 0.0 0.0 0.00 0.03 0.03 81 1014.1
20260507201929 9 34 0.0 0.0 0.00 0.03 0.03 81 1014.2
20260507201829 9 34 0.0 0.0 0.00 0.03 0.03 81 1014.1
20260507201729 9 34 0.0 0.0 0.00 0.03 0.03 82 1014.1
20260507201628 9 34 0.0 0.0 0.00 0.03 0.03 81 1014.1
20260507201528 9 34 0.0 0.0 0.00 0.03 0.03 81 1014.1
20260507201429 9 34 0.0 0.0 0.00 0.03 0.03 81 1014.1
20260507201329 9 34 0.0 0.0 0.00 0.03 0.03 81 1014.1
20260507201229 9 34 0.0 0.0 0.00 0.03 0.03 81 1014.1
20260507201129 9 34 0.0 3.2 0.00 0.03 0.03 81 1014.1
20260507201029 9 34 0.0 3.2 0.00 0.03 0.03 81 1014.1
20260507200933 9 34 0.0 3.2 0.00 0.03 0.03 81 1014.1
20260507200847 9 34 0.0 3.2 0.00 0.03 0.03 81 1013.9
20260507200843 9 34 0.0 3.2 0.00 0.03 0.03 81 1013.9
20260507200838 9 34 0.0 3.2 0.00 0.03 0.03 81 1013.9
20260507200529 9 34 0.0 3.2 0.00 0.03 0.03 80 1013.9
20260507200429 9 34 0.0 3.2 0.00 0.03 0.03 80 1013.9
20260507200329 9 34 0.0 3.2 0.00 0.03 0.03 80 1013.9
20260507200230 9 34 0.0 3.2 0.00 0.03 0.03 80 1013.9
20260507200129 9 34 0.0 3.2 0.00 0.03 0.03 80 1013.9
20260507200029 10 33 0.0 3.2 0.00 0.03 0.03 80 1013.9
20260507195929 10 33 0.0 3.2 0.00 0.03 0.03 80 1013.9
20260507195829 10 33 0.0 3.2 0.00 0.03 0.03 80 1013.9
20260507195729 10 33 0.0 3.2 0.00 0.03 0.03 80 1013.9
20260507195629 10 33 0.0 3.2 0.00 0.03 0.03 80 1013.8
20260507195529 10 33 0.0 3.2 0.00 0.03 0.03 80 1013.8
20260507195429 10 33 0.0 3.2 0.00 0.03 0.03 80 1013.8
20260507195329 10 33 0.0 3.2 0.00 0.03 0.03 80 1013.8
20260507195229 10 33 0.0 3.2 0.00 0.03 0.03 80 1013.7
20260507195129 10 33 0.0 3.2 0.00 0.03 0.03 80 1013.8
20260507195029 10 33 0.0 3.2 0.00 0.03 0.03 80 1013.7
20260507194929 10 32 0.0 0.0 0.00 0.03 0.03 80 1013.7
20260507194849 10 32 0.0 0.0 0.00 0.03 0.03 80 1013.7
20260507194844 10 32 0.0 0.0 0.00 0.03 0.03 80 1013.6
20260507194840 10 32 0.0 0.0 0.00 0.03 0.03 80 1013.6
20260507194529 10 32 0.0 0.0 0.00 0.03 0.03 80 1013.6
20260507194429 10 32 0.0 0.0 0.00 0.03 0.03 80 1013.6
20260507194328 10 32 0.0 0.0 0.00 0.03 0.03 79 1013.6
20260507194228 10 32 0.0 0.0 0.00 0.03 0.03 79 1013.6
20260507194129 10 32 0.0 0.0 0.00 0.03 0.03 79 1013.6
20260507194029 10 32 0.0 0.0 0.00 0.03 0.03 79 1013.6
20260507193929 10 32 0.0 0.0 0.00 0.03 0.03 79 1013.5
20260507193829 10 32 0.0 0.0 0.00 0.03 0.03 79 1013.5
20260507193730 10 32 0.0 0.0 0.00 0.03 0.03 79 1013.6
20260507193628 10 32 0.0 0.0 0.00 0.03 0.03 79 1013.6
20260507193528 10 32 0.0 0.0 0.00 0.03 0.03 79 1013.5
20260507193428 10 32 0.0 0.0 0.00 0.03 0.03 79 1013.5
20260507193329 10 32 0.0 0.0 0.00 0.03 0.03 79 1013.5
20260507193229 10 32 0.0 0.0 0.00 0.03 0.03 79 1013.5
20260507193127 10 32 0.0 0.0 0.00 0.03 0.03 79 1013.5
20260507193024 10 32 0.0 0.0 0.00 0.03 0.03 79 1013.5
20260507192923 10 32 0.0 0.0 0.00 0.03 0.03 79 1013.5
20260507192823 10 32 0.0 0.0 0.00 0.03 0.03 79 1013.5
20260507192722 10 32 0.0 1.6 0.00 0.03 0.03 79 1013.5
20260507192620 10 32 0.0 1.6 0.00 0.03 0.03 78 1013.5
20260507192518 10 32 0.0 1.6 0.00 0.03 0.03 78 1013.4
20260507192419 10 32 0.0 1.6 0.00 0.03 0.03 78 1013.5
20260507192317 10 32 0.0 1.6 0.00 0.03 0.03 78 1013.4
20260507192217 10 32 0.0 1.6 0.00 0.03 0.03 78 1013.5
20260507192115 10 32 1.6 3.2 0.00 0.03 0.03 78 1013.4
20260507192012 10 32 1.6 3.2 0.00 0.03 0.03 78 1013.5
20260507191913 10 32 1.6 3.2 0.00 0.03 0.03 78 1013.5
20260507191811 10 32 1.6 3.2 0.00 0.03 0.03 78 1013.4
20260507191711 10 32 1.6 3.2 0.00 0.03 0.03 77 1013.4
20260507191610 10 32 1.6 3.2 0.00 0.03 0.03 77 1013.5
20260507191509 10 32 1.6 3.2 0.00 0.03 0.03 77 1013.4
20260507191409 10 32 1.6 3.2 0.00 0.03 0.03 77 1013.5
20260507191309 10 32 1.6 3.2 0.00 0.03 0.03 77 1013.4
20260507191209 10 32 1.6 3.2 0.00 0.03 0.03 76 1013.4
20260507191129 10 32 1.6 3.2 0.00 0.03 0.03 76 1013.4
20260507191107 10 32 1.6 4.8 0.00 0.03 0.03 76 1013.4
20260507191007 10 31 1.6 4.8 0.00 0.03 0.03 76 1013.3
20260507190907 11 31 1.6 4.8 0.00 0.03 0.03 76 1013.3
20260507190807 11 31 1.6 6.4 0.00 0.03 0.03 76 1013.3
20260507190707 11 30 1.6 6.4 0.00 0.03 0.03 77 1013.3
20260507190604 11 30 1.6 6.4 0.00 0.03 0.03 77 1013.3
20260507190505 11 31 1.6 6.4 0.00 0.03 0.03 77 1013.2
20260507190401 11 31 1.6 6.4 0.00 0.03 0.03 76 1013.2
20260507190301 11 31 3.2 8.0 0.00 0.03 0.03 76 1013.2
20260507190201 11 30 3.2 8.0 0.00 0.03 0.03 76 1013.2
20260507190129 11 30 3.2 8.0 0.00 0.03 0.03 76 1013.1
20260507190002 11 31 3.2 8.0 0.00 0.03 0.03 76 1013.1
20260507185901 11 30 3.2 8.0 0.00 0.03 0.03 76 1013.1
20260507185801 11 30 4.8 8.0 0.00 0.03 0.03 76 1013.1
20260507185701 11 30 4.8 8.0 0.00 0.03 0.03 76 1013.0
20260507185629 11 29 4.8 8.0 0.00 0.03 0.03 76 1013.0
20260507185601 11 21 4.8 8.0 0.00 0.03 0.03 76 1013.0
20260507185501 11 14 4.8 8.0 0.00 0.03 0.03 76 1013.0
20260507185401 11 22 4.8 8.0 0.00 0.03 0.03 75 1013.0
20260507185301 11 22 4.8 8.0 0.00 0.03 0.03 75 1012.9
20260507185202 11 24 4.8 8.0 0.00 0.03 0.03 75 1012.9
20260507185129 11 31 4.8 8.0 0.00 0.03 0.03 75 1012.9
20260507185101 11 24 4.8 8.0 0.00 0.03 0.03 75 1012.9
20260507185000 11 24 4.8 8.0 0.00 0.03 0.03 75 1012.9
20260507184900 11 11 4.8 8.0 0.00 0.03 0.03 75 1012.9
20260507184801 11 355 4.8 8.0 0.00 0.03 0.03 75 1012.9
20260507184701 11 13 3.2 8.0 0.00 0.03 0.03 75 1012.9
20260507184629 11 13 4.8 8.0 0.00 0.03 0.03 75 1012.9
20260507184600 11 14 4.8 8.0 0.00 0.03 0.03 75 1012.9
20260507184500 11 5 4.8 9.7 0.00 0.03 0.03 75 1012.9
20260507184400 11 0 4.8 12.9 0.00 0.03 0.03 74 1012.9
20260507184300 11 0 4.8 12.9 0.00 0.03 0.03 74 1012.9
20260507184200 11 0 4.8 12.9 0.00 0.03 0.03 74 1012.9
20260507184128 11 0 4.8 12.9 0.00 0.03 0.03 74 1012.8
20260507184101 11 355 4.8 12.9 0.00 0.03 0.03 74 1012.8
20260507184001 11 14 4.8 12.9 0.00 0.03 0.03 74 1012.8
20260507183901 11 15 4.8 12.9 0.00 0.03 0.03 74 1012.8
20260507183801 11 16 4.8 12.9 0.00 0.03 0.03 74 1012.8
20260507183701 11 12 4.8 12.9 0.00 0.03 0.03 74 1012.8
20260507183600 11 5 4.8 12.9 0.00 0.03 0.03 74 1012.8
20260507183455 11 28 4.8 12.9 0.00 0.03 0.03 74 1012.8
20260507183355 11 5 4.8 14.5 0.00 0.03 0.03 74 1012.8
20260507183255 11 23 4.8 14.5 0.00 0.03 0.03 74 1012.8
20260507183129 11 22 4.8 14.5 0.00 0.03 0.03 74 1012.8
20260507183054 11 24 4.8 14.5 0.00 0.03 0.03 74 1012.8
20260507182951 11 347 4.8 14.5 0.00 0.03 0.03 73 1012.7
20260507182858 12 49 4.8 14.5 0.00 0.03 0.03 73 1012.7
20260507182854 12 19 6.4 14.5 0.00 0.03 0.03 73 1012.7
20260507182845 12 5 6.4 14.5 0.00 0.03 0.03 73 1012.7
20260507182841 12 5 4.8 14.5 0.00 0.03 0.03 73 1012.7
20260507182549 12 0 6.4 14.5 0.00 0.03 0.03 73 1012.7
20260507182445 12 49 4.8 14.5 0.00 0.03 0.03 73 1012.7
20260507182343 12 340 6.4 11.3 0.00 0.03 0.03 73 1012.6
20260507182242 12 336 6.4 12.9 0.00 0.03 0.03 73 1012.6
20260507182143 12 14 4.8 12.9 0.00 0.03 0.03 73 1012.6
20260507182129 12 38 4.8 12.9 0.00 0.03 0.03 73 1012.6
20260507182043 12 355 4.8 12.9 0.00 0.03 0.03 73 1012.6
20260507181937 12 34 4.8 12.9 0.00 0.03 0.03 73 1012.6
20260507181858 12 54 6.4 12.9 0.00 0.03 0.03 72 1012.6
20260507181853 12 20 4.8 12.9 0.00 0.03 0.03 72 1012.5
20260507181845 12 27 4.8 12.9 0.00 0.03 0.03 72 1012.6
20260507181840 12 25 6.4 12.9 0.00 0.03 0.03 72 1012.6
20260507181537 12 52 4.8 12.9 0.00 0.03 0.03 72 1012.5
20260507181433 12 14 4.8 12.9 0.00 0.03 0.03 72 1012.5
20260507181333 12 34 4.8 12.9 0.00 0.03 0.03 72 1012.6
20260507181233 12 0 4.8 12.9 0.00 0.03 0.03 72 1012.5
20260507181129 12 11 4.8 12.9 0.00 0.03 0.03 73 1012.6
20260507181030 12 19 4.8 12.9 0.00 0.03 0.03 72 1012.6
20260507180930 12 31 4.8 12.9 0.00 0.03 0.03 72 1012.5
20260507180831 12 28 4.8 12.9 0.00 0.03 0.03 72 1012.5
20260507180730 12 319 4.8 11.3 0.00 0.03 0.03 73 1012.5
20260507180632 12 26 4.8 11.3 0.00 0.03 0.03 72 1012.5
20260507180628 12 55 4.8 11.3 0.00 0.03 0.03 72 1012.5
20260507180529 12 54 4.8 11.3 0.00 0.03 0.03 72 1012.4
20260507180429 12 60 4.8 11.3 0.00 0.03 0.03 72 1012.4
20260507180329 12 5 4.8 11.3 0.00 0.03 0.03 72 1012.4
20260507180229 12 17 4.8 11.3 0.00 0.03 0.03 72 1012.4
20260507180129 12 14 4.8 11.3 0.00 0.03 0.03 71 1012.4
20260507180029 12 18 4.8 11.3 0.00 0.03 0.03 71 1012.4
20260507175928 13 33 4.8 11.3 0.00 0.03 0.03 71 1012.4
20260507175853 13 12 4.8 11.3 0.00 0.03 0.03 71 1012.4
20260507175844 13 12 4.8 11.3 0.00 0.03 0.03 71 1012.4
20260507175840 13 355 4.8 9.7 0.00 0.03 0.03 71 1012.4
20260507175529 13 355 3.2 11.3 0.00 0.03 0.03 71 1012.4
20260507175429 13 36 4.8 11.3 0.00 0.03 0.03 71 1012.4
20260507175353 13 51 4.8 11.3 0.00 0.03 0.03 71 1012.4
20260507175345 13 35 4.8 16.1 0.00 0.03 0.03 71 1012.4
20260507175341 13 38 4.8 16.1 0.00 0.03 0.03 70 1012.4
20260507175029 13 23 4.8 16.1 0.00 0.03 0.03 70 1012.3
20260507174929 13 19 6.4 16.1 0.00 0.03 0.03 71 1012.3
20260507174829 13 19 6.4 16.1 0.00 0.03 0.03 70 1012.3
20260507174729 13 19 6.4 16.1 0.00 0.03 0.03 70 1012.3
20260507174628 13 355 6.4 16.1 0.00 0.03 0.03 70 1012.3
20260507174529 13 42 8.0 16.1 0.00 0.03 0.03 70 1012.3
20260507174429 13 44 8.0 16.1 0.00 0.03 0.03 70 1012.3
20260507174329 13 35 6.4 16.1 0.00 0.03 0.03 70 1012.3
20260507174228 13 36 6.4 14.5 0.00 0.03 0.03 70 1012.3
20260507174128 13 54 8.0 14.5 0.00 0.03 0.03 70 1012.3
20260507174028 13 53 8.0 14.5 0.00 0.03 0.03 70 1012.3
20260507173928 13 14 8.0 14.5 0.00 0.03 0.03 70 1012.3
20260507173853 13 29 6.4 14.5 0.00 0.03 0.03 70 1012.3
20260507173845 13 11 6.4 14.5 0.00 0.03 0.03 70 1012.3
20260507173840 13 0 6.4 14.5 0.00 0.03 0.03 70 1012.1
20260507173529 13 342 6.4 14.5 0.00 0.03 0.03 69 1012.1
20260507173429 13 5 6.4 14.5 0.00 0.03 0.03 69 1012.1
20260507173328 13 11 6.4 12.9 0.00 0.03 0.03 69 1012.1
20260507173228 13 17 6.4 12.9 0.00 0.03 0.03 69 1012.1
20260507173128 13 349 6.4 12.9 0.00 0.03 0.03 69 1012.1
20260507173124 13 350 6.4 12.9 0.00 0.03 0.03 69 1012.1
20260507173028 13 5 6.4 12.9 0.00 0.03 0.03 69 1012.1
20260507172929 13 350 4.8 12.9 0.00 0.03 0.03 68 1012.1
20260507172846 13 22 4.8 12.9 0.00 0.03 0.03 68 1012.1
20260507172833 13 52 4.8 12.9 0.00 0.03 0.03 69 1012.1
20260507172829 13 51 4.8 12.9 0.00 0.03 0.03 69 1012.1
20260507172529 13 5 4.8 12.9 0.00 0.03 0.03 69 1012.1
20260507172428 13 5 4.8 9.7 0.00 0.03 0.03 69 1012.1
20260507172328 13 23 4.8 9.7 0.00 0.03 0.03 69 1012.1
20260507172228 13 355 4.8 9.7 0.00 0.03 0.03 69 1012.1
20260507172129 13 355 3.2 9.7 0.00 0.03 0.03 69 1012.1
20260507172113 13 334 3.2 8.0 0.00 0.03 0.03 69 1012.1
20260507172029 13 355 3.2 8.0 0.00 0.03 0.03 69 1012.1
20260507171929 13 324 3.2 8.0 0.00 0.03 0.03 68 1012.1
20260507171829 13 355 3.2 8.0 0.00 0.03 0.03 68 1012.1
20260507171728 13 355 3.2 8.0 0.00 0.03 0.03 69 1012.1
20260507171629 13 355 4.8 8.0 0.00 0.03 0.03 69 1012.1
20260507171609 13 355 4.8 8.0 0.00 0.03 0.03 69 1012.1
20260507171529 13 299 4.8 9.7 0.00 0.03 0.03 69 1012.1
20260507171429 13 297 4.8 9.7 0.00 0.03 0.03 69 1012.1
20260507171329 13 336 4.8 11.3 0.00 0.03 0.03 69 1012.1
20260507171229 13 336 4.8 11.3 0.00 0.03 0.03 69 1012.1
20260507171129 13 342 6.4 14.5 0.00 0.03 0.03 69 1012.1
20260507171108 13 342 6.4 14.5 0.00 0.03 0.03 69 1012.1
20260507171029 13 342 6.4 14.5 0.00 0.03 0.03 68 1012.1
20260507170929 13 342 6.4 14.5 0.00 0.03 0.03 69 1012.1
20260507170828 13 338 6.4 14.5 0.00 0.03 0.03 69 1012.1
20260507170733 13 349 6.4 14.5 0.00 0.03 0.03 68 1012.1
20260507170629 13 36 6.4 14.5 0.00 0.03 0.03 68 1012.1
20260507170608 13 38 6.4 14.5 0.00 0.03 0.03 68 1012.1
20260507170528 13 350 4.8 14.5 0.00 0.03 0.03 68 1012.1
20260507170428 13 327 6.4 14.5 0.00 0.03 0.03 68 1012.1
20260507170328 13 17 6.4 14.5 0.00 0.03 0.03 67 1012.1
20260507170231 13 346 4.8 14.5 0.00 0.03 0.03 67 1012.1
20260507170129 13 332 4.8 12.9 0.00 0.03 0.03 67 1012.1
20260507170108 13 346 4.8 12.9 0.00 0.03 0.03 67 1012.1
20260507170029 13 22 4.8 12.9 0.00 0.03 0.03 67 1012.0
20260507165928 13 5 4.8 12.9 0.00 0.03 0.03 67 1012.1
20260507165828 13 327 4.8 12.9 0.00 0.03 0.03 67 1012.1
20260507165728 13 311 4.8 12.9 0.00 0.03 0.03 67 1012.0
20260507165628 13 348 6.4 12.9 0.00 0.03 0.03 67 1012.0
20260507165609 13 11 6.4 12.9 0.00 0.03 0.03 67 1012.0
20260507165528 13 11 6.4 12.9 0.00 0.03 0.03 67 1012.0
20260507165429 13 350 6.4 12.9 0.00 0.03 0.03 67 1012.0
20260507165329 13 355 6.4 12.9 0.00 0.03 0.03 66 1012.0
20260507165229 14 337 6.4 12.9 0.00 0.03 0.03 67 1012.0
20260507165129 14 350 6.4 12.9 0.00 0.03 0.03 66 1012.0
20260507165108 14 328 6.4 12.9 0.00 0.03 0.03 67 1012.0
20260507165029 14 350 6.4 12.9 0.00 0.03 0.03 67 1011.9
20260507164928 14 340 6.4 12.9 0.00 0.03 0.03 67 1012.0
20260507164828 14 301 6.4 12.9 0.00 0.03 0.03 66 1011.9
20260507164728 14 341 6.4 12.9 0.00 0.03 0.03 66 1011.9
20260507164629 14 10 6.4 12.9 0.00 0.03 0.03 66 1011.9
20260507164609 14 337 6.4 12.9 0.00 0.03 0.03 66 1011.9
20260507164529 14 355 6.4 12.9 0.00 0.03 0.03 66 1011.9
20260507164429 14 341 6.4 12.9 0.00 0.03 0.03 67 1011.9
20260507164328 14 316 6.4 14.5 0.00 0.03 0.03 66 1011.8
20260507164228 14 343 6.4 16.1 0.00 0.03 0.03 66 1011.8
20260507164108 14 306 6.4 17.7 0.00 0.03 0.03 66 1011.8
20260507164028 14 299 6.4 17.7 0.00 0.03 0.03 66 1011.8
20260507163928 14 28 6.4 17.7 0.00 0.03 0.03 66 1011.8
20260507163828 14 9 8.0 17.7 0.00 0.03 0.03 66 1011.8
20260507163728 14 5 8.0 17.7 0.00 0.03 0.03 66 1011.8
20260507163629 14 346 8.0 17.7 0.00 0.03 0.03 66 1011.8
20260507163608 14 355 8.0 17.7 0.00 0.03 0.03 66 1011.8
20260507163529 14 22 8.0 17.7 0.00 0.03 0.03 66 1011.8
20260507163429 14 342 8.0 17.7 0.00 0.03 0.03 66 1011.8
20260507163329 14 302 8.0 17.7 0.00 0.03 0.03 66 1011.8
20260507163229 14 338 8.0 17.7 0.00 0.03 0.03 66 1011.8
20260507163128 14 9 8.0 17.7 0.00 0.03 0.03 66 1011.7
20260507163109 14 34 8.0 17.7 0.00 0.03 0.03 66 1011.7
20260507163029 14 60 8.0 17.7 0.00 0.03 0.03 66 1011.8
20260507162929 14 9 8.0 17.7 0.00 0.03 0.03 66 1011.7
20260507162837 14 340 6.4 14.5 0.00 0.03 0.03 66 1011.8
20260507162833 14 20 6.4 17.7 0.00 0.03 0.03 66 1011.8
20260507162829 14 341 6.4 14.5 0.00 0.03 0.03 67 1011.8
20260507162821 14 62 6.4 14.5 0.00 0.03 0.03 66 1011.8
20260507162529 14 345 6.4 14.5 0.00 0.03 0.03 66 1011.7
20260507162429 14 355 8.0 16.1 0.00 0.03 0.03 66 1011.7
20260507162329 14 36 6.4 16.1 0.00 0.03 0.03 67 1011.8
20260507162229 14 311 6.4 16.1 0.00 0.03 0.03 67 1011.8
20260507162128 14 0 6.4 16.1 0.00 0.03 0.03 67 1011.8
20260507162108 14 5 6.4 16.1 0.00 0.03 0.03 67 1011.8
20260507162028 14 348 6.4 16.1 0.00 0.03 0.03 66 1011.8
20260507161928 14 341 6.4 16.1 0.00 0.03 0.03 67 1011.9
20260507161828 14 5 6.4 16.1 0.00 0.03 0.03 66 1011.8
20260507161729 14 338 6.4 16.1 0.00 0.03 0.03 67 1011.8
20260507161628 14 346 6.4 16.1 0.00 0.03 0.03 67 1011.8
20260507161602 14 355 6.4 16.1 0.00 0.03 0.03 67 1011.8
20260507161529 14 325 6.4 16.1 0.00 0.03 0.03 67 1011.8
20260507161429 14 337 6.4 14.5 0.00 0.03 0.03 67 1011.8
20260507161329 14 321 6.4 12.9 0.00 0.03 0.03 66 1011.8
20260507161229 14 321 6.4 14.5 0.00 0.03 0.03 66 1011.8
20260507161129 14 334 6.4 14.5 0.00 0.03 0.03 66 1011.8
20260507161102 14 322 6.4 14.5 0.00 0.03 0.03 66 1011.8
20260507161029 14 334 6.4 14.5 0.00 0.03 0.03 66 1011.8
20260507160929 14 340 6.4 14.5 0.00 0.03 0.03 67 1011.8
20260507160834 14 309 6.4 14.5 0.00 0.03 0.03 65 1011.8
20260507160828 14 339 6.4 14.5 0.00 0.03 0.03 66 1011.8
20260507160820 14 328 6.4 14.5 0.00 0.03 0.03 66 1011.8
20260507160812 14 329 6.4 14.5 0.00 0.03 0.03 66 1011.8
20260507160528 14 5 6.4 14.5 0.00 0.03 0.03 65 1011.8
20260507160428 14 22 6.4 14.5 0.00 0.03 0.03 66 1011.8
20260507160328 14 348 6.4 14.5 0.00 0.03 0.03 66 1011.8
20260507160228 14 23 6.4 14.5 0.00 0.03 0.03 66 1011.8
20260507160129 14 355 6.4 14.5 0.00 0.03 0.03 65 1011.8
20260507160100 14 14 6.4 14.5 0.00 0.03 0.03 66 1011.8
20260507160029 14 5 8.0 16.1 0.00 0.03 0.03 66 1011.8
20260507155929 14 346 8.0 16.1 0.00 0.03 0.03 65 1011.8
20260507155829 15 355 8.0 16.1 0.00 0.03 0.03 65 1011.9
20260507155728 15 333 8.0 17.7 0.00 0.03 0.03 65 1011.8
20260507155629 15 323 8.0 17.7 0.00 0.03 0.03 65 1011.8
20260507155600 15 337 8.0 17.7 0.00 0.03 0.03 65 1011.8
20260507155529 15 22 9.7 17.7 0.00 0.03 0.03 66 1011.8
20260507155429 15 312 9.7 17.7 0.00 0.03 0.03 65 1011.7
20260507155329 15 304 9.7 17.7 0.00 0.03 0.03 65 1011.7
20260507155228 15 338 11.3 19.3 0.00 0.03 0.03 64 1011.7
20260507155129 15 0 11.3 19.3 0.00 0.03 0.03 64 1011.7
20260507155101 15 328 11.3 19.3 0.00 0.03 0.03 64 1011.7
20260507155028 15 329 11.3 19.3 0.00 0.03 0.03 64 1011.7
20260507154928 15 320 11.3 19.3 0.00 0.03 0.03 64 1011.7
20260507154828 15 325 11.3 19.3 0.00 0.03 0.03 64 1011.8
20260507154728 15 309 11.3 19.3 0.00 0.03 0.03 63 1011.7
20260507154629 15 355 9.7 19.3 0.00 0.03 0.03 64 1011.7
20260507154600 15 355 9.7 19.3 0.00 0.03 0.03 63 1011.7
20260507154528 15 343 9.7 19.3 0.00 0.03 0.03 64 1011.7
20260507154429 15 342 9.7 19.3 0.00 0.03 0.03 63 1011.7
20260507154328 15 0 9.7 19.3 0.00 0.03 0.03 64 1011.8
20260507154230 15 355 9.7 20.9 0.00 0.03 0.03 65 1011.7
20260507154128 15 346 9.7 20.9 0.00 0.03 0.03 64 1011.7
20260507154102 15 346 9.7 20.9 0.00 0.03 0.03 63 1011.7
20260507154028 15 0 9.7 20.9 0.00 0.03 0.03 63 1011.7
20260507153928 15 340 9.7 20.9 0.00 0.03 0.03 62 1011.7
20260507153828 15 309 9.7 20.9 0.00 0.05 0.03 61 1011.7
20260507153728 15 319 9.7 20.9 0.00 0.05 0.03 63 1011.7
20260507153628 15 296 9.7 20.9 0.00 0.05 0.03 63 1011.8
20260507153601 15 294 9.7 20.9 0.00 0.05 0.03 62 1011.8
20260507153529 15 305 9.7 20.9 0.00 0.05 0.03 62 1011.8
20260507153429 15 290 9.7 20.9 0.00 0.05 0.03 63 1011.8
20260507153329 15 338 9.7 20.9 0.00 0.05 0.03 62 1011.7
20260507153324 15 291 9.7 16.1 0.00 0.05 0.03 63 1011.7
20260507153319 15 305 9.7 17.7 0.00 0.05 0.03 63 1011.7
20260507153315 15 305 9.7 16.1 0.00 0.05 0.03 64 1011.7
20260507153028 15 299 9.7 16.1 0.00 0.05 0.03 63 1011.7
20260507152928 15 311 9.7 16.1 0.00 0.05 0.03 63 1011.6
20260507152848 15 311 9.7 20.9 0.00 0.05 0.03 63 1011.6
20260507152829 15 283 8.0 16.1 0.00 0.05 0.03 64 1011.7
20260507152729 15 296 9.7 16.1 0.00 0.05 0.03 64 1011.7
20260507152634 15 313 9.7 16.1 0.00 0.05 0.03 63 1011.7
20260507152600 15 310 9.7 16.1 0.00 0.05 0.03 63 1011.7
20260507152529 15 302 9.7 20.9 0.00 0.05 0.03 63 1011.6
20260507152428 15 302 9.7 20.9 0.00 0.05 0.03 63 1011.7
20260507152328 15 311 9.7 20.9 0.00 0.05 0.03 63 1011.6
20260507152323 15 343 9.7 20.9 0.00 0.05 0.03 64 1011.6
20260507152319 15 304 9.7 20.9 0.00 0.05 0.03 65 1011.6
20260507152315 15 0 9.7 20.9 0.00 0.05 0.03 64 1011.6
20260507152028 15 321 9.7 20.9 0.00 0.05 0.03 64 1011.6
20260507151924 15 304 9.7 20.9 0.00 0.05 0.03 64 1011.6
20260507151824 15 333 8.0 20.9 0.00 0.05 0.03 64 1011.6
20260507151724 15 336 8.0 20.9 0.00 0.05 0.03 63 1011.6
20260507151626 15 304 8.0 20.9 0.00 0.05 0.03 65 1011.6
20260507151602 14 312 8.0 20.9 0.00 0.05 0.03 65 1011.6
20260507151524 14 326 6.4 19.3 0.00 0.05 0.03 64 1011.6
20260507151424 14 291 6.4 16.1 0.00 0.05 0.03 65 1011.7
20260507151324 14 306 6.4 16.1 0.00 0.05 0.03 65 1011.6
20260507151224 14 340 6.4 16.1 0.00 0.05 0.03 66 1011.7
20260507151124 14 269 6.4 14.5 0.00 0.05 0.03 66 1011.6
20260507151102 14 310 6.4 14.5 0.00 0.05 0.03 65 1011.6
20260507151025 14 280 6.4 14.5 0.00 0.05 0.03 65 1011.6
20260507150924 14 298 8.0 17.7 0.00 0.05 0.03 65 1011.7
20260507150833 15 294 9.7 17.7 0.00 0.05 0.03 64 1011.7
20260507150825 15 302 8.0 17.7 0.00 0.05 0.03 65 1011.7
20260507150821 15 309 8.0 17.7 0.00 0.05 0.03 64 1011.7
20260507150817 15 307 9.7 17.7 0.00 0.05 0.03 64 1011.7
20260507150525 15 310 9.7 19.3 0.00 0.05 0.03 64 1011.7
20260507150425 15 318 11.3 19.3 0.00 0.05 0.03 63 1011.7
20260507150324 15 321 11.3 20.9 0.00 0.05 0.03 63 1011.7
20260507150224 15 313 11.3 20.9 0.00 0.05 0.03 63 1011.7
20260507150124 15 302 11.3 20.9 0.00 0.05 0.03 62 1011.8
20260507150101 15 327 11.3 20.9 0.00 0.05 0.03 63 1011.8
20260507150018 15 299 11.3 20.9 0.00 0.05 0.03 63 1011.8
20260507145918 15 342 11.3 20.9 0.00 0.05 0.03 62 1011.7
20260507145831 15 335 9.7 20.9 0.00 0.05 0.03 62 1011.7
20260507145824 15 281 11.3 20.9 0.00 0.05 0.03 62 1011.8
20260507145820 15 321 9.7 20.9 0.00 0.05 0.03 62 1011.7
20260507145816 15 290 9.7 20.9 0.00 0.05 0.03 62 1011.7
20260507145514 15 315 9.7 20.9 0.00 0.05 0.03 62 1011.6
20260507145329 15 288 9.7 19.3 0.00 0.05 0.03 63 1011.8
20260507145324 15 281 9.7 19.3 0.00 0.05 0.03 63 1011.7
20260507145319 15 289 8.0 19.3 0.00 0.05 0.03 63 1011.7
20260507145315 15 341 9.7 19.3 0.00 0.05 0.03 63 1011.8
20260507145013 15 313 8.0 17.7 0.00 0.05 0.03 63 1011.6
20260507144912 15 309 9.7 17.7 0.00 0.05 0.03 63 1011.6
20260507144812 15 309 9.7 17.7 0.00 0.05 0.03 63 1011.6
20260507144708 15 311 9.7 19.3 0.00 0.05 0.03 64 1011.6
20260507144606 15 5 9.7 19.3 0.00 0.05 0.03 64 1011.6
20260507144601 15 313 9.7 19.3 0.00 0.05 0.03 64 1011.6
20260507144505 15 316 9.7 19.3 0.00 0.05 0.03 64 1011.6
20260507144403 15 329 9.7 19.3 0.00 0.05 0.03 65 1011.6
20260507144303 15 311 9.7 19.3 0.00 0.05 0.03 65 1011.6
20260507144202 15 301 9.7 19.3 0.00 0.05 0.03 65 1011.7
20260507144102 15 318 9.7 19.3 0.00 0.05 0.03 66 1011.6
20260507144057 15 329 9.7 19.3 0.00 0.05 0.03 66 1011.6
20260507144002 14 331 9.7 19.3 0.00 0.05 0.03 66 1011.6
20260507143902 14 319 9.7 19.3 0.00 0.05 0.03 65 1011.6
20260507143802 14 336 9.7 19.3 0.00 0.05 0.03 65 1011.6
20260507143702 14 298 8.0 19.3 0.00 0.05 0.03 65 1011.6
20260507143601 14 351 8.0 19.3 0.00 0.05 0.03 65 1011.6
20260507143552 14 293 9.7 19.3 0.00 0.05 0.03 65 1011.7
20260507143502 14 286 9.7 19.3 0.00 0.05 0.03 65 1011.7
20260507143401 14 328 9.7 19.3 0.00 0.05 0.03 65 1011.7
20260507143301 14 290 9.7 19.3 0.00 0.05 0.03 64 1011.7
20260507143201 14 344 9.7 19.3 0.00 0.05 0.03 65 1011.7
20260507143101 14 307 9.7 19.3 0.00 0.05 0.03 66 1011.7
20260507143048 14 292 9.7 19.3 0.00 0.05 0.03 66 1011.7
20260507143001 14 298 9.7 19.3 0.00 0.05 0.03 65 1011.7
20260507142801 14 331 9.7 19.3 0.00 0.05 0.03 65 1011.6
20260507142701 14 342 8.0 17.7 0.00 0.05 0.03 65 1011.6
20260507142601 14 305 8.0 17.7 0.00 0.05 0.03 65 1011.6
20260507142541 14 329 8.0 17.7 0.00 0.05 0.03 65 1011.6
20260507142500 14 335 8.0 17.7 0.00 0.05 0.03 66 1011.6
20260507142401 14 342 8.0 17.7 0.00 0.05 0.03 66 1011.6
20260507142301 14 313 8.0 17.7 0.00 0.05 0.03 66 1011.6
20260507142201 14 329 8.0 16.1 0.00 0.05 0.03 65 1011.7
20260507142105 14 298 8.0 16.1 0.00 0.05 0.03 65 1011.7
20260507142036 14 342 8.0 16.1 0.00 0.05 0.03 65 1011.7
20260507142001 14 326 8.0 14.5 0.00 0.05 0.03 65 1011.7
20260507141901 14 330 6.4 14.5 0.00 0.05 0.03 65 1011.7
20260507141809 14 247 8.0 14.5 0.00 0.05 0.03 64 1011.7
20260507141801 14 221 6.4 14.5 0.00 0.05 0.03 64 1011.7
20260507141757 14 282 8.0 14.5 0.00 0.05 0.03 64 1011.7
20260507141753 14 247 8.0 14.5 0.00 0.05 0.03 64 1011.7
20260507141501 14 247 8.0 14.5 0.00 0.05 0.03 64 1011.7
20260507141401 14 247 8.0 14.5 0.00 0.05 0.03 66 1011.8
20260507141300 14 274 8.0 14.5 0.00 0.05 0.03 65 1011.8
20260507141200 14 305 8.0 14.5 0.00 0.05 0.03 64 1011.7
20260507141102 14 320 8.0 14.5 0.00 0.05 0.03 65 1011.7
20260507141034 14 292 8.0 14.5 0.00 0.05 0.03 64 1011.7
20260507140958 14 323 8.0 14.5 0.00 0.05 0.03 64 1011.7
20260507140857 14 295 8.0 14.5 0.00 0.05 0.03 65 1011.7
20260507140756 14 294 8.0 14.5 0.00 0.05 0.03 65 1011.7
20260507140656 14 267 8.0 14.5 0.00 0.05 0.03 65 1011.7
20260507140550 14 254 8.0 14.5 0.00 0.05 0.03 65 1011.7
20260507140536 14 271 8.0 14.5 0.00 0.05 0.03 65 1011.7
20260507140451 14 247 8.0 14.5 0.00 0.05 0.03 65 1011.7
20260507140350 14 284 6.4 14.5 0.00 0.05 0.03 65 1011.7
20260507140250 14 273 6.4 14.5 0.00 0.05 0.03 66 1011.7
20260507140149 14 257 8.0 14.5 0.00 0.05 0.03 66 1011.8
20260507140046 14 304 6.4 14.5 0.00 0.05 0.03 66 1011.7
20260507140035 14 250 6.4 14.5 0.00 0.05 0.03 66 1011.7
20260507135946 14 335 8.0 14.5 0.00 0.05 0.03 66 1011.7
20260507135847 14 309 8.0 20.9 0.00 0.05 0.03 67 1011.7
20260507135744 14 325 8.0 20.9 0.00 0.05 0.03 66 1011.7
20260507135643 14 316 8.0 20.9 0.00 0.05 0.03 66 1011.7
20260507135538 14 261 8.0 20.9 0.00 0.05 0.03 66 1011.8
20260507135534 14 253 8.0 20.9 0.00 0.05 0.03 66 1011.8
20260507135438 14 314 8.0 20.9 0.00 0.05 0.03 66 1011.7
20260507135338 14 306 9.7 20.9 0.00 0.05 0.03 66 1011.8
20260507135238 14 275 9.7 20.9 0.00 0.05 0.03 66 1011.7
20260507135138 14 303 9.7 20.9 0.00 0.05 0.03 66 1011.8
20260507135034 14 293 9.7 20.9 0.00 0.05 0.03 66 1011.7
20260507134933 14 277 9.7 20.9 0.00 0.05 0.03 65 1011.9
20260507134833 14 340 9.7 17.7 0.00 0.05 0.03 65 1011.7
20260507134732 14 346 9.7 17.7 0.00 0.05 0.03 66 1011.7
20260507134631 14 283 9.7 17.7 0.00 0.05 0.03 66 1011.7
20260507134535 14 279 9.7 17.7 0.00 0.05 0.03 66 1011.7
20260507134530 14 325 9.7 17.7 0.00 0.05 0.03 66 1011.7
20260507134430 14 323 9.7 17.7 0.00 0.05 0.03 67 1011.7
20260507134330 14 288 9.7 17.7 0.00 0.05 0.03 66 1011.8
20260507134230 14 237 9.7 17.7 0.00 0.05 0.03 66 1011.8
20260507134130 14 290 8.0 17.7 0.00 0.05 0.03 67 1011.8
20260507134030 14 271 8.0 17.7 0.00 0.05 0.03 66 1011.8
20260507133929 14 323 8.0 17.7 0.00 0.05 0.03 66 1011.7
20260507133830 13 333 8.0 17.7 0.00 0.05 0.03 66 1011.7
20260507133801 14 285 8.0 17.7 0.00 0.05 0.03 67 1011.8
20260507133755 13 303 8.0 17.7 0.00 0.05 0.03 66 1011.8
20260507133751 14 301 8.0 17.7 0.00 0.05 0.03 66 1011.8
20260507133529 14 293 8.0 17.7 0.00 0.05 0.03 67 1011.8
20260507133429 14 258 8.0 17.7 0.00 0.05 0.03 67 1011.8
20260507133329 13 298 9.7 17.7 0.00 0.05 0.03 66 1011.8
20260507133229 14 266 9.7 17.7 0.00 0.05 0.03 66 1011.8
20260507133130 14 322 9.7 17.7 0.00 0.05 0.03 66 1011.9
20260507133036 14 298 9.7 17.7 0.00 0.05 0.03 66 1011.8
20260507133029 14 315 9.7 17.7 0.00 0.05 0.03 66 1011.8
20260507132929 14 310 8.0 17.7 0.00 0.05 0.03 66 1011.8
20260507132829 14 292 8.0 17.7 0.00 0.05 0.03 66 1011.8
20260507132729 14 290 8.0 17.7 0.00 0.05 0.03 66 1011.8
20260507132629 14 311 9.7 16.1 0.00 0.05 0.03 65 1011.8
20260507132533 14 346 8.0 17.7 0.00 0.05 0.03 66 1011.7
20260507132528 14 340 8.0 17.7 0.00 0.05 0.03 66 1011.7
20260507132428 14 314 9.7 17.7 0.00 0.05 0.03 65 1011.8
20260507132328 14 314 9.7 17.7 0.00 0.05 0.03 65 1011.8
20260507132229 14 290 9.7 17.7 0.00 0.05 0.03 65 1011.8
20260507132129 14 284 8.0 17.7 0.00 0.05 0.03 65 1011.8
20260507132028 14 320 9.7 17.7 0.00 0.05 0.03 65 1011.9
20260507131928 14 315 9.7 17.7 0.00 0.05 0.03 65 1011.8
20260507131828 14 298 9.7 17.7 0.00 0.05 0.03 64 1011.8
20260507131729 14 260 9.7 17.7 0.00 0.05 0.03 65 1011.8
20260507131629 14 281 8.0 17.7 0.00 0.05 0.03 67 1011.8
20260507131532 14 289 8.0 16.1 0.00 0.05 0.03 67 1011.8
20260507131528 14 288 8.0 16.1 0.00 0.05 0.03 67 1011.8
20260507131428 14 309 8.0 16.1 0.00 0.05 0.03 66 1011.8
20260507131228 14 313 8.0 16.1 0.00 0.05 0.03 69 1011.7
20260507131126 14 341 8.0 16.1 0.00 0.05 0.03 69 1011.7
20260507131026 14 350 8.0 16.1 0.00 0.05 0.03 69 1011.7
20260507130926 14 281 8.0 14.5 0.00 0.05 0.03 69 1011.7
20260507130826 13 338 8.0 14.5 0.00 0.05 0.03 68 1011.8
20260507130725 13 319 8.0 14.5 0.00 0.05 0.03 68 1011.8
20260507130620 13 269 8.0 20.9 0.00 0.05 0.03 67 1011.8
20260507130520 13 290 8.0 20.9 0.00 0.05 0.03 68 1011.8
20260507130420 13 309 8.0 20.9 0.00 0.05 0.03 67 1011.8
20260507130320 13 327 8.0 20.9 0.00 0.05 0.03 67 1011.8
20260507130220 13 282 8.0 20.9 0.00 0.05 0.03 69 1011.8
20260507130114 13 297 8.0 20.9 0.00 0.05 0.03 68 1011.8
20260507130029 13 305 8.0 20.9 0.00 0.05 0.03 70 1011.8
20260507130014 13 294 8.0 20.9 0.00 0.05 0.03 70 1011.8
20260507125914 13 300 8.0 20.9 0.00 0.05 0.03 70 1011.8
20260507125814 13 301 8.0 20.9 0.00 0.05 0.03 69 1011.8
20260507125713 13 306 8.0 20.9 0.00 0.05 0.03 72 1011.8